W4HSV Weather Reports


time (UTC)temp
F
wind
direction
speed
knots
gust
knots
rain 1hr
in
rain 24hr
in
rain mn
in
humidity
%
barometer
mb
20260509131048 59 185 0.9 6.1 0.00 0.00 0.00 91 1011.1
20260509130918 59 242 2.6 6.1 0.00 0.00 0.00 91 1011.2
20260509130826 59 191 3.5 6.1 0.00 0.00 0.00 91 1011.2
20260509130714 59 207 2.6 5.2 0.00 0.00 0.00 91 1011.3
20260509130621 59 248 1.7 7.0 0.00 0.00 0.00 91 1011.3
20260509130557 59 213 1.7 7.0 0.00 0.00 0.00 91 1011.2
20260509130330 59 232 2.6 7.0 0.00 0.00 0.00 91 1011.3
20260509130218 59 202 3.5 7.0 0.00 0.00 0.00 91 1011.2
20260509130145 59 219 3.5 7.0 0.00 0.00 0.00 91 1011.2
20260509130012 59 200 3.5 7.0 0.00 0.00 0.00 91 1011.2
20260509125919 59 209 4.3 7.0 0.00 0.00 0.00 91 1011.3
20260509125830 59 253 4.3 7.0 0.00 0.00 0.00 91 1011.3
20260509125719 59 228 3.5 7.0 0.00 0.00 0.00 91 1011.2
20260509125626 59 249 2.6 7.0 0.00 0.00 0.00 91 1011.2
20260509125533 59 225 1.7 6.1 0.00 0.00 0.00 91 1011.2
20260509125419 59 275 2.6 6.1 0.00 0.00 0.00 91 1011.3
20260509125326 59 216 3.5 6.1 0.00 0.00 0.00 91 1011.3
20260509125216 59 197 2.6 6.1 0.00 0.00 0.00 91 1011.3
20260509125124 59 196 1.7 6.1 0.00 0.00 0.00 91 1011.3
20260509125056 59 221 1.7 6.1 0.00 0.00 0.00 91 1011.3
20260509124829 59 212 2.6 6.1 0.00 0.00 0.00 91 1011.3
20260509124736 59 211 3.5 6.1 0.00 0.00 0.00 91 1011.4
20260509124627 59 221 3.5 6.1 0.00 0.00 0.00 91 1011.4
20260509124514 59 192 3.5 6.1 0.00 0.00 0.00 91 1011.4
20260509124422 59 211 2.6 6.1 0.00 0.00 0.00 91 1011.4
20260509124330 59 187 2.6 6.1 0.00 0.00 0.00 91 1011.3
20260509124218 59 220 2.6 6.1 0.00 0.00 0.00 91 1011.4
20260509124127 59 203 3.5 6.1 0.00 0.00 0.00 91 1011.4
20260509124017 59 192 3.5 6.1 0.00 0.00 0.00 91 1011.4
20260509123926 59 200 2.6 6.1 0.00 0.00 0.00 91 1011.4
20260509123834 59 196 2.6 6.1 0.00 0.00 0.00 91 1011.4
20260509123720 59 192 3.5 6.1 0.00 0.00 0.00 91 1011.4
20260509123648 59 250 3.5 7.0 0.00 0.00 0.00 91 1011.4
20260509123601 59 247 2.6 7.0 0.00 0.00 0.00 91 1011.4
20260509123314 59 248 2.6 7.8 0.00 0.00 0.00 91 1011.3
20260509123221 59 232 2.6 7.8 0.00 0.00 0.00 91 1011.3
20260509123129 59 184 2.6 7.8 0.00 0.00 0.00 91 1011.4
20260509123017 59 227 2.6 7.8 0.00 0.00 0.00 91 1011.5
20260509122928 59 239 2.6 7.8 0.00 0.00 0.00 91 1011.5
20260509122816 59 263 3.5 7.8 0.00 0.00 0.00 91 1011.5
20260509122725 59 183 3.5 7.8 0.00 0.00 0.00 91 1011.5
20260509122611 59 221 3.5 7.8 0.00 0.00 0.00 91 1011.6
20260509122518 59 202 4.3 7.8 0.00 0.00 0.00 91 1011.5
20260509122426 59 182 6.1 7.8 0.00 0.00 0.00 91 1011.5
20260509122337 59 184 5.2 7.8 0.00 0.00 0.00 91 1011.6
20260509122224 59 197 5.2 7.8 0.00 0.00 0.00 91 1011.6
20260509122131 59 186 4.3 7.8 0.00 0.00 0.00 91 1011.6
20260509122100 59 205 4.3 7.8 0.00 0.00 0.00 91 1011.5
20260509121834 59 199 4.3 7.8 0.00 0.00 0.00 91 1011.4
20260509121724 59 205 5.2 7.8 0.00 0.00 0.00 91 1011.4
20260509121612 59 206 5.2 7.8 0.00 0.00 0.00 90 1011.4
20260509121539 59 195 5.2 7.8 0.00 0.00 0.00 90 1011.4
20260509121426 59 201 5.2 7.8 0.00 0.00 0.00 91 1011.4
20260509121314 59 195 3.5 7.0 0.00 0.00 0.00 91 1011.4
20260509121221 59 192 2.6 7.0 0.00 0.00 0.00 91 1011.4
20260509121112 59 194 3.5 7.0 0.00 0.00 0.00 91 1011.4
20260509121019 59 196 3.5 7.0 0.00 0.00 0.00 91 1011.4
20260509120926 59 192 3.5 7.0 0.00 0.00 0.00 91 1011.4
20260509120814 59 188 3.5 6.1 0.00 0.00 0.00 91 1011.4
20260509120721 59 190 2.6 6.1 0.00 0.00 0.00 91 1011.4
20260509120630 59 192 3.5 6.1 0.00 0.00 0.00 91 1011.4
20260509120600 59 186 3.5 6.1 0.00 0.00 0.00 91 1011.3
20260509120312 59 164 3.5 6.1 0.00 0.00 0.00 91 1011.4
20260509120220 59 182 3.5 6.1 0.00 0.00 0.00 91 1011.3
20260509120127 59 188 2.6 6.1 0.00 0.00 0.00 91 1011.3
20260509120019 59 177 1.7 6.1 0.00 0.00 0.00 91 1011.2
20260509115948 59 178 2.6 6.1 0.00 0.00 0.00 91 1011.2
20260509115814 59 175 3.5 6.1 0.00 0.00 0.00 91 1011.3
20260509115721 59 167 3.5 6.1 0.00 0.00 0.00 91 1011.3
20260509115628 59 219 3.5 6.1 0.00 0.00 0.00 91 1011.2
20260509115519 59 248 2.6 5.2 0.00 0.00 0.00 91 1011.2
20260509115426 59 200 2.6 5.2 0.00 0.00 0.00 91 1011.2
20260509115314 59 200 2.6 5.2 0.00 0.00 0.00 91 1011.2
20260509115222 59 202 2.6 5.2 0.00 0.00 0.00 91 1011.2
20260509115149 59 180 1.7 4.3 0.00 0.00 0.00 91 1011.1
20260509115123 59 225 0.9 4.3 0.00 0.00 0.00 91 1011.1
20260509114815 59 227 0.9 4.3 0.00 0.00 0.00 91 1011.0
20260509114722 59 191 0.9 4.3 0.00 0.00 0.00 91 1011.0
20260509114630 59 200 1.7 4.3 0.00 0.00 0.00 91 1010.9
20260509114518 59 195 2.6 4.3 0.00 0.00 0.00 91 1011.0
20260509114425 59 244 2.6 4.3 0.00 0.00 0.00 91 1011.0
20260509114337 59 216 1.7 4.3 0.00 0.00 0.00 91 1011.0
20260509114222 59 220 2.6 4.3 0.00 0.00 0.00 91 1011.0
20260509114129 59 215 2.6 4.3 0.00 0.00 0.00 90 1010.9
20260509114016 59 201 2.6 4.3 0.00 0.00 0.00 91 1010.9
20260509113944 59 233 1.7 4.3 0.00 0.00 0.00 90 1010.9
20260509113829 59 217 1.7 4.3 0.00 0.00 0.00 90 1010.9
20260509113720 59 228 1.7 4.3 0.00 0.00 0.00 90 1010.9
20260509113629 59 205 2.6 4.3 0.00 0.00 0.00 90 1010.8
20260509113557 59 210 3.5 4.3 0.00 0.00 0.00 90 1010.8
20260509113312 59 171 2.6 4.3 0.00 0.00 0.00 90 1010.7
20260509113224 59 203 1.7 4.3 0.00 0.00 0.00 91 1010.7
20260509113111 59 195 1.7 3.5 0.00 0.00 0.00 91 1010.7
20260509113019 59 175 1.7 3.5 0.00 0.00 0.00 91 1010.7
20260509112926 59 169 1.7 3.5 0.00 0.00 0.00 91 1010.7
20260509112814 59 193 1.7 3.5 0.00 0.00 0.00 91 1010.6
20260509112742 59 185 0.9 3.5 0.00 0.00 0.00 91 1010.6
20260509112612 59 211 0.9 2.6 0.00 0.00 0.00 90 1010.5
20260509112520 59 211 0.9 2.6 0.00 0.00 0.00 91 1010.5
20260509112427 59 211 0.9 2.6 0.00 0.00 0.00 90 1010.6
20260509112314 59 218 0.9 2.6 0.00 0.00 0.00 90 1010.5
20260509112221 58 205 0.9 2.6 0.00 0.00 0.00 90 1010.5
20260509112123 58 205 1.7 2.6 0.00 0.00 0.00 90 1010.5
20260509111816 58 209 1.7 2.6 0.00 0.00 0.00 90 1010.5
20260509111723 58 178 1.7 2.6 0.00 0.00 0.00 91 1010.5
20260509111652 58 200 0.9 2.6 0.00 0.00 0.00 91 1010.5
20260509111518 58 204 0.9 2.6 0.00 0.00 0.00 91 1010.6
20260509111429 58 229 0.9 2.6 0.00 0.00 0.00 91 1010.6
20260509111336 58 246 0.9 2.6 0.00 0.00 0.00 91 1010.6
20260509111243 58 242 0.9 4.3 0.00 0.00 0.00 90 1010.6
20260509111129 58 211 0.9 4.3 0.00 0.00 0.00 90 1010.4
20260509111037 58 194 1.7 4.3 0.00 0.00 0.00 90 1010.4
20260509110923 58 198 1.7 4.3 0.00 0.00 0.00 90 1010.4
20260509110851 58 198 1.7 4.3 0.00 0.00 0.00 90 1010.3
20260509110721 58 216 0.9 4.3 0.00 0.00 0.00 90 1010.3
20260509110600 58 182 1.7 4.3 0.00 0.00 0.00 90 1010.4
20260509110314 58 210 2.6 4.3 0.00 0.00 0.00 90 1010.6
20260509110224 58 196 2.6 4.3 0.00 0.00 0.00 90 1010.6
20260509110111 58 180 2.6 4.3 0.00 0.00 0.00 90 1010.4
20260509110019 58 194 2.6 4.3 0.00 0.00 0.00 90 1010.4
20260509105927 58 192 2.6 4.3 0.00 0.00 0.00 90 1010.4
20260509105834 58 200 2.6 4.3 0.00 0.00 0.00 90 1010.3
20260509105719 58 208 2.6 4.3 0.00 0.00 0.00 90 1010.4
20260509105646 58 177 1.7 4.3 0.00 0.00 0.00 90 1010.4
20260509105518 58 179 0.9 3.5 0.00 0.00 0.00 90 1010.4
20260509105425 58 155 0.9 3.5 0.00 0.00 0.00 90 1010.4
20260509105313 58 187 0.0 4.3 0.00 0.00 0.00 90 1010.4
20260509105241 58 202 0.0 4.3 0.00 0.00 0.00 90 1010.3
20260509105120 58 202 0.9 4.3 0.00 0.00 0.00 90 1010.3
20260509104813 58 202 1.7 4.3 0.00 0.00 0.00 90 1010.2
20260509104740 58 199 1.7 4.3 0.00 0.00 0.00 90 1010.2
20260509104627 58 191 1.7 4.3 0.00 0.00 0.00 90 1010.2
20260509104514 58 186 1.7 3.5 0.00 0.00 0.00 90 1010.1
20260509104421 58 193 1.7 3.5 0.00 0.00 0.00 90 1010.1
20260509104328 58 206 0.9 3.5 0.00 0.00 0.00 90 1010.1
20260509104218 58 218 0.9 2.6 0.00 0.00 0.00 90 1010.1
20260509104125 58 201 0.9 2.6 0.00 0.00 0.00 90 1010.1
20260509104012 58 203 0.9 2.6 0.00 0.00 0.00 90 1010.1
20260509103941 58 196 0.9 2.6 0.00 0.00 0.00 90 1010.1
20260509103827 58 192 0.0 2.6 0.00 0.00 0.00 90 1010.0
20260509103718 58 221 0.9 3.5 0.00 0.00 0.00 90 1010.1
20260509103618 58 221 0.9 3.5 0.00 0.00 0.00 90 1010.1
20260509103311 58 205 0.9 3.5 0.00 0.00 0.00 90 1010.1
20260509103219 58 205 0.9 3.5 0.00 0.00 0.00 90 1010.1
20260509103130 58 206 0.9 3.5 0.00 0.00 0.00 90 1010.1
20260509103018 58 219 0.9 3.5 0.00 0.00 0.00 90 1010.1
20260509102926 58 209 0.9 3.5 0.00 0.00 0.00 90 1010.1
20260509102814 58 199 0.9 3.5 0.00 0.00 0.00 90 1010.0
20260509102742 58 209 1.7 3.5 0.00 0.00 0.00 90 1010.0
20260509102627 58 217 2.6 3.5 0.00 0.00 0.00 90 1010.0
20260509102519 58 209 2.6 3.5 0.00 0.00 0.00 90 1009.8
20260509102427 58 200 1.7 3.5 0.00 0.00 0.00 90 1009.8
20260509102314 58 182 0.9 3.5 0.00 0.00 0.00 90 1009.8
20260509102222 58 152 0.0 3.5 0.00 0.00 0.00 90 1009.8
20260509102150 58 152 0.0 3.5 0.00 0.00 0.00 90 1009.8
20260509102124 58 150 0.0 3.5 0.00 0.00 0.00 90 1009.8
20260509101818 58 150 0.0 3.5 0.00 0.00 0.00 90 1009.8
20260509101725 58 150 0.9 3.5 0.00 0.00 0.00 90 1009.8
20260509101614 58 150 1.7 3.5 0.00 0.00 0.00 90 1009.8
20260509101543 58 136 1.7 2.6 0.00 0.00 0.00 90 1009.8
20260509101414 58 139 1.7 2.6 0.00 0.00 0.00 90 1009.7
20260509101321 58 153 1.7 2.6 0.00 0.00 0.00 90 1009.7
20260509101228 58 153 1.7 2.6 0.00 0.00 0.00 90 1009.8
20260509101116 58 145 1.7 2.6 0.00 0.00 0.00 90 1009.8
20260509101024 58 143 1.7 2.6 0.00 0.00 0.00 90 1009.8
20260509100930 58 136 0.9 3.5 0.00 0.00 0.00 90 1009.8
20260509100821 58 189 0.9 3.5 0.00 0.00 0.00 90 1009.9
20260509100729 58 190 0.0 3.5 0.00 0.00 0.00 90 1009.8
20260509100616 58 190 0.0 3.5 0.00 0.00 0.00 90 1009.9
20260509100547 58 190 0.9 3.5 0.00 0.00 0.00 90 1009.9
20260509100340 58 188 0.9 3.5 0.00 0.00 0.00 90 1009.8
20260509100230 58 175 1.7 3.5 0.00 0.00 0.00 90 1009.8
20260509100118 58 226 1.7 3.5 0.00 0.00 0.00 90 1009.9
20260509100026 58 186 1.7 3.5 0.00 0.00 0.00 90 1009.9
20260509095933 58 134 1.7 3.5 0.00 0.00 0.00 90 1009.9
20260509095819 58 139 0.9 3.5 0.00 0.00 0.00 90 1009.8
20260509095727 58 176 0.9 4.3 0.00 0.00 0.00 90 1009.8
20260509095618 58 150 1.7 4.3 0.00 0.00 0.00 90 1009.9
20260509095525 58 126 1.7 4.3 0.00 0.00 0.00 90 1009.9
20260509095412 58 153 1.7 4.3 0.00 0.00 0.00 90 1009.7
20260509095320 58 169 1.7 4.3 0.00 0.00 0.00 90 1009.7
20260509095248 58 148 1.7 4.3 0.00 0.00 0.00 90 1009.9
20260509095118 58 130 1.7 4.3 0.00 0.00 0.00 90 1010.0
20260509095047 58 181 1.7 4.3 0.00 0.00 0.00 90 1010.0
20260509094821 58 178 0.9 3.5 0.00 0.00 0.00 90 1010.0
20260509094727 58 189 0.9 3.5 0.00 0.00 0.00 90 1010.0
20260509094615 58 180 0.9 3.5 0.00 0.00 0.00 90 1010.0
20260509094548 58 199 0.9 3.5 0.00 0.00 0.00 90 1010.0
20260509094414 58 187 0.9 4.3 0.00 0.00 0.00 90 1010.0
20260509094322 58 163 0.9 4.3 0.00 0.00 0.00 90 1010.0
20260509094230 58 163 1.7 4.3 0.00 0.00 0.00 90 1010.1
20260509094119 58 157 1.7 4.3 0.00 0.00 0.00 89 1010.3
20260509094011 58 202 0.9 4.3 0.00 0.00 0.00 89 1010.3
20260509093917 58 216 0.0 4.3 0.00 0.00 0.00 89 1010.4
20260509093845 58 223 0.0 4.3 0.00 0.00 0.00 89 1010.4
20260509093731 58 223 1.7 4.3 0.00 0.00 0.00 89 1010.4
20260509093619 58 215 2.6 4.3 0.00 0.00 0.00 89 1010.5
20260509093553 58 217 2.6 5.2 0.00 0.00 0.00 89 1010.5
20260509093326 58 228 2.6 5.2 0.00 0.00 0.00 89 1010.3
20260509093213 58 220 2.6 5.2 0.00 0.00 0.00 89 1010.2
20260509093121 58 196 2.6 5.2 0.00 0.00 0.00 89 1010.2
20260509093029 58 192 2.6 5.2 0.00 0.00 0.00 89 1010.2
20260509092916 58 207 2.6 5.2 0.00 0.00 0.00 89 1010.2
20260509092827 58 200 3.5 5.2 0.00 0.00 0.00 89 1010.2
20260509092715 58 220 2.6 5.2 0.00 0.00 0.00 89 1010.4
20260509092622 58 204 3.5 5.2 0.00 0.00 0.00 89 1010.4
20260509092529 58 213 3.5 5.2 0.00 0.00 0.00 88 1010.3
20260509092416 58 213 3.5 6.1 0.00 0.00 0.00 88 1010.4
20260509092327 58 181 2.6 6.1 0.00 0.00 0.00 88 1010.4
20260509092214 58 180 2.6 6.1 0.00 0.00 0.00 88 1010.3
20260509092122 58 205 3.5 6.1 0.00 0.00 0.00 88 1010.3
20260509092053 58 198 3.5 6.1 0.00 0.00 0.00 88 1010.3
20260509091847 58 206 3.5 7.0 0.00 0.00 0.00 88 1010.2
20260509091718 58 173 3.5 7.0 0.00 0.00 0.00 88 1010.1
20260509091646 58 145 3.5 7.0 0.00 0.00 0.00 87 1010.1
20260509091552 58 175 3.5 7.0 0.00 0.00 0.00 87 1010.0
20260509091418 58 168 4.3 7.8 0.00 0.00 0.00 87 1010.1
20260509091326 58 192 3.5 7.8 0.00 0.00 0.00 87 1010.1
20260509091234 58 192 2.6 7.8 0.00 0.00 0.00 87 1010.1
20260509091120 58 175 3.5 7.8 0.00 0.00 0.00 87 1010.1
20260509091011 58 183 5.2 9.6 0.00 0.00 0.00 87 1010.0
20260509090919 58 163 5.2 9.6 0.00 0.00 0.00 87 1010.1
20260509090827 58 179 5.2 9.6 0.00 0.00 0.00 87 1010.1
20260509090734 58 193 4.3 9.6 0.00 0.00 0.00 87 1010.1
20260509090620 58 186 4.3 9.6 0.00 0.00 0.00 87 1010.1
20260509090553 58 175 4.3 9.6 0.00 0.00 0.00 87 1010.2
20260509090327 58 139 5.2 9.6 0.00 0.00 0.00 86 1010.2
20260509090214 58 175 4.3 10.4 0.00 0.00 0.00 86 1010.1
20260509090122 58 160 3.5 7.0 0.00 0.00 0.00 86 1010.1
20260509090029 59 146 3.5 7.0 0.00 0.00 0.00 86 1010.3
20260509085921 58 141 3.5 7.0 0.00 0.00 0.00 86 1010.3
20260509085829 59 160 3.5 7.8 0.00 0.00 0.00 86 1010.2
20260509085716 58 179 3.5 7.8 0.00 0.00 0.00 86 1010.3
20260509085624 58 180 3.5 7.8 0.00 0.00 0.00 86 1010.3
20260509085531 59 185 3.5 7.8 0.00 0.00 0.00 86 1010.3
20260509085421 59 173 4.3 7.8 0.00 0.00 0.00 86 1010.3
20260509085330 59 179 4.3 7.8 0.00 0.00 0.00 86 1010.3
20260509085218 59 126 4.3 7.8 0.00 0.00 0.00 86 1010.2
20260509085124 59 147 4.3 7.8 0.00 0.00 0.00 85 1010.2
20260509085054 59 124 4.3 7.8 0.00 0.00 0.00 85 1010.2
20260509084811 59 176 3.5 7.0 0.00 0.00 0.00 85 1010.4
20260509084718 59 182 3.5 7.0 0.00 0.00 0.00 85 1010.4
20260509084626 59 166 4.3 7.0 0.00 0.00 0.00 85 1010.4
20260509084514 59 153 4.3 7.0 0.00 0.00 0.00 85 1010.4
20260509084441 59 198 3.5 6.1 0.00 0.00 0.00 85 1010.5
20260509084326 59 180 3.5 5.2 0.00 0.00 0.00 85 1010.5
20260509084218 59 182 3.5 5.2 0.00 0.00 0.00 85 1010.5
20260509084125 59 184 3.5 5.2 0.00 0.00 0.00 85 1010.5
20260509084013 59 200 2.6 6.1 0.00 0.00 0.00 85 1010.6
20260509083941 59 165 2.6 6.1 0.00 0.00 0.00 85 1010.6
20260509083827 59 182 2.6 6.1 0.00 0.00 0.00 85 1010.5
20260509083715 58 168 3.5 7.0 0.00 0.00 0.00 85 1010.5
20260509083627 59 181 3.5 7.0 0.00 0.00 0.00 85 1010.5
20260509083557 58 185 3.5 7.0 0.00 0.00 0.00 85 1010.5
20260509083330 58 197 2.6 7.0 0.00 0.00 0.00 85 1010.6
20260509083218 59 165 2.6 7.0 0.00 0.00 0.00 85 1010.7
20260509083146 59 186 3.5 7.0 0.00 0.00 0.00 85 1010.7
20260509083016 58 198 4.3 7.0 0.00 0.00 0.00 85 1010.6
20260509082924 58 191 3.5 7.0 0.00 0.00 0.00 85 1010.6
20260509082851 58 171 3.5 7.0 0.00 0.00 0.00 85 1010.7
20260509082737 58 181 3.5 6.1 0.00 0.00 0.00 85 1010.8
20260509082624 58 182 3.5 6.1 0.00 0.00 0.00 85 1010.8
20260509082531 58 186 3.5 6.1 0.00 0.00 0.00 85 1010.9
20260509082423 58 180 3.5 7.0 0.00 0.00 0.00 85 1010.9
20260509082330 58 178 2.6 7.0 0.00 0.00 0.00 85 1010.8
20260509082237 58 163 1.7 7.0 0.00 0.00 0.00 85 1010.8
20260509082124 58 180 3.5 7.0 0.00 0.00 0.00 85 1010.8
20260509082055 58 151 3.5 7.0 0.00 0.00 0.00 85 1010.8
20260509081812 58 191 4.3 7.0 0.00 0.00 0.00 86 1010.9
20260509081719 58 177 4.3 7.0 0.00 0.00 0.00 86 1010.8
20260509081626 58 192 3.5 7.0 0.00 0.00 0.00 86 1010.8
20260509081515 58 190 2.6 4.3 0.00 0.00 0.00 86 1010.8
20260509081422 58 163 2.6 4.3 0.00 0.00 0.00 86 1010.8
20260509081313 58 173 2.6 4.3 0.00 0.00 0.00 86 1010.8
20260509081220 58 178 1.7 4.3 0.00 0.00 0.00 86 1010.8
20260509081128 58 180 1.7 4.3 0.00 0.00 0.00 86 1010.9
20260509081016 58 201 1.7 4.3 0.00 0.00 0.00 86 1010.8
20260509080923 58 206 1.7 4.3 0.00 0.00 0.00 86 1010.8
20260509080815 58 203 0.9 4.3 0.00 0.00 0.00 86 1010.8
20260509080742 58 198 0.9 3.5 0.00 0.00 0.00 86 1010.8
20260509080648 58 198 0.9 3.5 0.00 0.00 0.00 86 1010.7
20260509080618 58 198 0.9 4.3 0.00 0.00 0.00 86 1010.7
20260509080351 58 209 0.9 4.3 0.00 0.00 0.00 87 1010.9
20260509080216 58 183 1.7 4.3 0.00 0.00 0.00 87 1010.9
20260509080127 58 196 1.7 4.3 0.00 0.00 0.00 87 1010.9
20260509080015 58 173 1.7 4.3 0.00 0.00 0.00 87 1010.9
20260509075923 58 197 0.9 4.3 0.00 0.00 0.00 87 1010.9
20260509075831 58 187 0.9 4.3 0.00 0.00 0.00 87 1011.0
20260509075717 58 221 1.7 4.3 0.00 0.00 0.00 87 1011.0
20260509075624 57 173 2.6 4.3 0.00 0.00 0.00 87 1011.0
20260509075535 57 196 1.7 4.3 0.00 0.00 0.00 87 1011.0
20260509075422 57 182 0.9 2.6 0.00 0.00 0.00 87 1011.0
20260509075329 57 215 0.9 2.6 0.00 0.00 0.00 87 1011.0
20260509075218 57 200 0.9 2.6 0.00 0.00 0.00 88 1011.1
20260509075126 57 213 0.9 2.6 0.00 0.00 0.00 88 1011.1
20260509075059 57 240 0.9 2.6 0.00 0.00 0.00 88 1011.1
20260509074812 57 200 0.9 6.1 0.00 0.00 0.00 88 1010.8
20260509074720 57 200 0.9 6.1 0.00 0.00 0.00 88 1010.8
20260509074628 57 200 0.9 6.1 0.00 0.00 0.00 88 1010.7
20260509074515 57 161 0.9 6.1 0.00 0.00 0.00 88 1010.4
20260509074426 57 183 0.9 6.1 0.00 0.00 0.00 88 1010.4
20260509074314 57 204 1.7 6.1 0.00 0.00 0.00 88 1010.5
20260509074221 57 191 2.6 6.1 0.00 0.00 0.00 88 1010.5
20260509074128 57 174 3.5 6.1 0.00 0.00 0.00 88 1010.5
20260509074034 57 200 4.3 6.1 0.00 0.00 0.00 88 1010.6
20260509073919 56 169 4.3 6.1 0.00 0.00 0.00 88 1010.6
20260509073829 56 193 4.3 5.2 0.00 0.00 0.00 88 1010.6
20260509073717 56 176 2.6 5.2 0.00 0.00 0.00 88 1010.6
20260509073625 56 190 1.7 4.3 0.00 0.00 0.00 88 1010.6
20260509073555 56 209 0.9 3.5 0.00 0.00 0.00 88 1010.6
20260509073312 56 178 0.9 3.5 0.00 0.00 0.00 89 1010.5
20260509073220 56 163 0.9 3.5 0.00 0.00 0.00 89 1010.5
20260509073128 56 163 0.9 3.5 0.00 0.00 0.00 89 1010.4
20260509073014 56 163 0.9 3.5 0.00 0.00 0.00 89 1010.5
20260509072942 56 163 1.7 3.5 0.00 0.00 0.00 89 1010.5
20260509072828 56 152 1.7 3.5 0.00 0.00 0.00 89 1010.4
20260509072719 56 146 0.9 3.5 0.00 0.00 0.00 89 1010.4
20260509072626 56 157 0.9 2.6 0.00 0.00 0.00 89 1010.4
20260509072514 56 186 0.9 2.6 0.00 0.00 0.00 89 1010.5
20260509072422 56 186 0.9 2.6 0.00 0.00 0.00 89 1010.5
20260509072330 56 186 0.9 2.6 0.00 0.00 0.00 89 1010.6
20260509072221 56 186 1.7 2.6 0.00 0.00 0.00 89 1010.6
20260509072129 56 186 1.7 2.6 0.00 0.00 0.00 89 1010.7
20260509072100 56 185 0.9 2.6 0.00 0.00 0.00 89 1010.7
20260509071814 55 161 0.9 2.6 0.00 0.00 0.00 89 1010.7
20260509071720 55 161 0.9 2.6 0.00 0.00 0.00 89 1010.7
20260509071631 55 161 0.0 2.6 0.00 0.00 0.00 89 1010.7
20260509071539 55 161 0.0 2.6 0.00 0.00 0.00 89 1010.6
20260509071425 55 161 0.0 2.6 0.00 0.00 0.00 89 1010.6
20260509071311 55 161 0.9 2.6 0.00 0.00 0.00 90 1010.6
20260509071220 55 161 0.9 2.6 0.00 0.00 0.00 90 1010.6
20260509071148 55 140 0.9 2.6 0.00 0.00 0.00 90 1010.5
20260509071018 55 138 0.9 2.6 0.00 0.00 0.00 90 1010.5
20260509070946 55 172 0.9 2.6 0.00 0.00 0.00 90 1010.5
20260509070812 55 172 0.9 2.6 0.00 0.00 0.00 90 1010.5
20260509070720 55 172 0.9 2.6 0.00 0.00 0.00 89 1010.5
20260509070628 55 167 0.9 2.6 0.00 0.00 0.00 90 1010.4
20260509070601 55 180 0.0 2.6 0.00 0.00 0.00 90 1010.4
20260509070314 55 175 0.9 2.6 0.00 0.00 0.00 90 1010.5
20260509070223 55 145 1.7 2.6 0.00 0.00 0.00 90 1010.5
20260509070130 55 134 1.7 2.6 0.00 0.00 0.00 90 1010.5
20260509070017 55 155 0.9 1.7 0.00 0.00 0.00 89 1010.5
20260509065924 55 227 0.0 1.7 0.00 0.00 0.00 89 1010.5
20260509065816 55 227 0.0 1.7 0.00 0.00 0.00 89 1010.6
20260509065723 55 229 0.0 1.7 0.00 0.00 0.00 89 1010.6
20260509065629 55 271 0.0 1.7 0.00 0.00 0.00 89 1010.7
20260509065517 55 271 0.0 1.7 0.00 0.00 0.00 89 1010.7
20260509065444 55 271 0.0 1.7 0.00 0.00 0.00 89 1010.7
20260509065330 55 271 0.0 1.7 0.00 0.00 0.00 89 1010.7
20260509065241 55 271 0.9 1.7 0.00 0.00 0.00 89 1010.7
20260509065147 55 271 0.9 1.7 0.00 0.00 0.00 89 1010.8
20260509065056 55 271 0.9 1.7 0.00 0.00 0.00 89 1010.7
20260509064829 55 271 0.9 1.7 0.00 0.00 0.00 89 1010.8
20260509064738 55 271 0.0 0.9 0.00 0.00 0.00 89 1010.8
20260509064624 55 271 0.0 0.0 0.00 0.00 0.00 88 1010.8
20260509064517 55 271 0.0 0.0 0.00 0.00 0.00 88 1010.7
20260509064424 55 271 0.0 0.0 0.00 0.00 0.00 88 1010.7
20260509064331 55 271 0.0 0.0 0.00 0.00 0.00 89 1010.6
20260509064218 55 271 0.0 0.0 0.00 0.00 0.00 88 1010.6
20260509064124 55 271 0.0 0.0 0.00 0.00 0.00 88 1010.6
20260509064016 55 271 0.0 0.0 0.00 0.00 0.00 88 1010.6
20260509063924 55 271 0.0 0.0 0.00 0.00 0.00 88 1010.6
20260509063811 55 271 0.0 0.0 0.00 0.00 0.00 88 1010.5
20260509063719 55 271 0.0 0.0 0.00 0.00 0.00 88 1010.5
20260509063647 55 271 0.0 0.0 0.00 0.00 0.00 88 1010.5
20260509063621 55 271 0.0 0.0 0.00 0.00 0.00 88 1010.4
20260509063314 55 271 0.0 0.0 0.00 0.00 0.00 88 1010.5
20260509063221 55 271 0.0 0.0 0.00 0.00 0.00 88 1010.5
20260509063128 55 271 0.0 0.0 0.00 0.00 0.00 88 1010.6
20260509063035 55 271 0.0 0.0 0.00 0.00 0.00 88 1010.5
20260509062922 55 271 0.0 0.0 0.00 0.00 0.00 88 1010.5
20260509062814 55 271 0.0 0.0 0.00 0.00 0.00 88 1010.5
20260509062722 55 271 0.0 0.0 0.00 0.00 0.00 88 1010.5
20260509062650 55 271 0.0 0.0 0.00 0.00 0.00 88 1010.5
20260509062516 55 271 0.0 0.0 0.00 0.00 0.00 88 1010.5
20260509062423 55 271 0.0 0.0 0.00 0.00 0.00 88 1010.5
20260509062314 55 271 0.0 0.0 0.00 0.00 0.00 88 1010.4
20260509062222 55 271 0.0 0.0 0.00 0.00 0.00 88 1010.4
20260509062130 55 271 0.0 0.0 0.00 0.00 0.00 88 1010.5
20260509062101 55 271 0.0 0.0 0.00 0.00 0.00 88 1010.4
20260509061836 55 271 0.0 0.9 0.00 0.00 0.00 88 1010.5
20260509061726 55 271 0.0 0.9 0.00 0.00 0.00 88 1010.5
20260509061633 55 271 0.0 0.9 0.00 0.00 0.00 88 1010.6
20260509061541 55 271 0.0 0.9 0.00 0.00 0.00 87 1010.6
20260509061428 55 271 0.0 0.9 0.00 0.00 0.00 87 1010.5
20260509061335 55 271 0.0 0.9 0.00 0.00 0.00 87 1010.5
20260509061241 55 271 0.0 0.9 0.00 0.00 0.00 87 1010.5
20260509061148 55 271 0.0 0.9 0.00 0.00 0.00 87 1010.5
20260509061014 55 271 0.0 0.9 0.00 0.00 0.00 87 1010.5
20260509060927 55 277 0.0 0.0 0.00 0.00 0.00 87 1010.5
20260509060815 55 279 0.0 0.0 0.00 0.00 0.00 87 1010.6
20260509060722 55 279 0.0 0.0 0.00 0.00 0.00 87 1010.6
20260509060605 56 279 0.0 0.0 0.00 0.00 0.00 87 1010.6
20260509060339 56 279 0.0 0.0 0.00 0.00 0.00 87 1010.8
20260509060224 56 279 0.0 0.0 0.00 0.00 0.00 86 1010.8
20260509060112 56 279 0.0 0.0 0.00 0.00 0.00 86 1010.8
20260509060020 56 279 0.0 0.0 0.00 0.00 0.00 86 1010.8
20260509055927 56 279 0.0 0.0 0.00 0.00 0.00 86 1010.8
20260509055818 56 279 0.0 0.9 0.00 0.00 0.00 86 1010.8
20260509055725 56 279 0.0 2.6 0.00 0.00 0.00 86 1010.8
20260509055612 56 279 0.0 2.6 0.00 0.00 0.00 86 1010.8
20260509055541 56 279 0.0 2.6 0.00 0.00 0.00 86 1010.8
20260509055427 56 279 0.0 2.6 0.00 0.00 0.00 86 1010.8
20260509055314 56 279 0.0 2.6 0.00 0.00 0.00 86 1010.8
20260509055247 56 279 0.9 2.6 0.00 0.00 0.00 86 1010.8
20260509055132 56 279 0.9 2.6 0.00 0.00 0.00 86 1010.8
20260509055102 56 279 0.9 2.6 0.00 0.00 0.00 85 1010.8
20260509054835 56 142 0.0 0.0 0.00 0.00 0.00 85 1010.8
20260509054721 56 142 0.0 0.0 0.00 0.00 0.00 85 1010.8
20260509054614 56 142 0.0 0.0 0.00 0.00 0.00 85 1010.8
20260509054521 57 142 0.0 0.0 0.00 0.00 0.00 85 1010.8
20260509054427 57 142 0.0 0.0 0.00 0.00 0.00 85 1010.7
20260509054315 57 142 0.0 0.0 0.00 0.00 0.00 85 1010.7
20260509054244 57 142 0.0 0.0 0.00 0.00 0.00 85 1010.7
20260509054129 57 142 0.0 0.0 0.00 0.00 0.00 85 1010.8
20260509054021 57 142 0.0 0.0 0.00 0.00 0.00 85 1010.8
20260509053929 57 142 0.0 0.0 0.00 0.00 0.00 85 1010.8
20260509053817 57 142 0.0 0.0 0.00 0.00 0.00 85 1010.8
20260509053724 57 142 0.0 0.0 0.00 0.00 0.00 85 1010.8
20260509053612 57 142 0.0 0.0 0.00 0.00 0.00 84 1010.9
20260509053546 57 142 0.0 0.0 0.00 0.00 0.00 84 1010.9
20260509053319 57 142 0.0 0.0 0.00 0.00 0.00 84 1011.0
20260509053226 57 142 0.0 0.0 0.00 0.00 0.00 84 1011.0
20260509053115 57 142 0.0 0.0 0.00 0.00 0.00 84 1011.1
20260509053022 57 142 0.0 0.0 0.00 0.00 0.00 84 1011.1
20260509052913 57 142 0.0 0.0 0.00 0.00 0.00 84 1011.1
20260509052821 57 142 0.0 0.0 0.00 0.00 0.00 83 1011.1
20260509052727 57 142 0.0 0.0 0.00 0.00 0.00 83 1011.1
20260509052616 57 142 0.0 0.0 0.00 0.00 0.00 83 1011.1
20260509052543 57 142 0.0 0.0 0.00 0.00 0.00 83 1011.1
20260509052413 58 142 0.0 0.0 0.00 0.00 0.00 83 1011.1
20260509052319 58 142 0.0 0.0 0.00 0.00 0.00 83 1011.1
20260509052226 58 142 0.0 0.0 0.00 0.00 0.00 83 1011.1
20260509052154 58 142 0.0 0.0 0.00 0.00 0.00 83 1011.1
20260509052125 58 142 0.0 0.9 0.00 0.00 0.00 83 1011.1
20260509051818 58 142 0.0 0.9 0.00 0.00 0.00 82 1011.2
20260509051730 58 142 0.0 0.9 0.00 0.00 0.00 82 1011.2
20260509051618 58 142 0.0 0.9 0.00 0.00 0.00 82 1011.2
20260509051526 58 142 0.0 0.9 0.00 0.00 0.00 82 1011.2
20260509051433 58 142 0.0 0.9 0.00 0.00 0.00 82 1011.1
20260509051319 58 142 0.0 0.9 0.00 0.00 0.00 82 1011.1
20260509051226 58 142 0.0 0.9 0.00 0.00 0.00 82 1011.1
20260509051117 58 142 0.0 0.9 0.00 0.00 0.00 82 1011.2
20260509051023 58 142 0.0 0.9 0.00 0.00 0.00 82 1011.2
20260509050930 58 142 0.0 0.9 0.00 0.00 0.00 82 1011.1
20260509050818 58 142 0.0 2.6 0.00 0.00 0.00 82 1011.2
20260509050725 58 142 0.0 2.6 0.00 0.00 0.00 82 1011.2
20260509050633 58 142 0.0 2.6 0.00 0.00 0.00 82 1011.1
20260509050608 58 142 0.0 2.6 0.00 0.00 0.00 82 1011.1
20260509050320 58 142 0.0 2.6 0.00 0.00 0.00 82 1011.2
20260509050228 58 142 0.9 2.6 0.00 0.00 0.00 82 1011.2
20260509050115 58 142 0.9 2.6 0.00 0.00 0.00 82 1011.1
20260509050042 58 142 0.9 2.6 0.00 0.00 0.00 82 1011.1
20260509045912 58 140 0.9 2.6 0.00 0.00 0.00 82 1011.0
20260509045818 58 132 1.7 2.6 0.00 0.00 0.00 82 1011.0
20260509045725 58 128 1.7 2.6 0.00 0.00 0.00 82 1011.0
20260509045613 58 140 1.7 2.6 0.00 0.00 0.00 82 1011.1
20260509045522 58 134 0.9 2.6 0.00 0.00 0.00 82 1011.1
20260509045412 58 148 0.0 1.7 0.00 0.00 0.00 82 1011.3
20260509045320 58 148 0.0 0.0 0.00 0.00 0.00 82 1011.3
20260509045228 58 148 0.0 0.0 0.00 0.00 0.00 82 1011.3
20260509045116 58 148 0.0 0.0 0.00 0.00 0.00 82 1011.3
20260509045051 58 148 0.0 0.0 0.00 0.00 0.00 82 1011.3
20260509044824 58 148 0.0 0.0 0.00 0.00 0.00 82 1011.4
20260509044711 58 148 0.0 0.0 0.00 0.00 0.00 81 1011.5
20260509044620 58 148 0.0 0.0 0.00 0.00 0.00 81 1011.4
20260509044528 58 148 0.0 0.0 0.00 0.00 0.00 81 1011.4
20260509044415 58 148 0.0 0.0 0.00 0.00 0.00 81 1011.4
20260509044326 58 148 0.0 0.0 0.00 0.00 0.00 81 1011.4
20260509044213 58 148 0.0 0.0 0.00 0.00 0.00 81 1011.5
20260509044121 58 148 0.0 0.0 0.00 0.00 0.00 81 1011.5
20260509044029 58 148 0.0 0.0 0.00 0.00 0.00 81 1011.5
20260509043915 58 148 0.0 0.0 0.00 0.00 0.00 81 1011.6
20260509043828 58 148 0.0 0.0 0.00 0.00 0.00 81 1011.6
20260509043715 58 148 0.0 0.0 0.00 0.00 0.00 81 1011.6
20260509043642 58 148 0.0 0.0 0.00 0.00 0.00 81 1011.6
20260509043552 58 148 0.0 0.0 0.00 0.00 0.00 81 1011.6
20260509043325 58 148 0.0 0.0 0.00 0.00 0.00 81 1011.7
20260509043217 58 148 0.0 0.0 0.00 0.00 0.00 81 1011.7
20260509043125 58 148 0.0 0.0 0.00 0.00 0.00 81 1011.7
20260509043013 59 148 0.0 0.0 0.00 0.00 0.00 81 1011.6
20260509042941 59 148 0.0 0.0 0.00 0.00 0.00 81 1011.5
20260509042826 59 148 0.0 0.0 0.00 0.00 0.00 81 1011.5
20260509042713 59 148 0.0 0.0 0.00 0.00 0.00 81 1011.6
20260509042625 59 148 0.0 0.0 0.00 0.00 0.00 81 1011.6
20260509042512 59 148 0.0 0.0 0.00 0.00 0.00 81 1011.5
20260509042420 59 148 0.0 0.0 0.00 0.00 0.00 81 1011.5
20260509042327 59 148 0.0 0.0 0.00 0.00 0.00 81 1011.5
20260509042214 59 148 0.0 0.0 0.00 0.00 0.00 81 1011.5
20260509042056 59 148 0.0 0.0 0.00 0.00 0.00 81 1011.5
20260509041831 59 148 0.0 0.0 0.00 0.00 0.00 81 1011.5
20260509041720 59 148 0.0 0.0 0.00 0.00 0.00 81 1011.6
20260509041611 59 148 0.0 0.9 0.00 0.00 0.00 81 1011.5
20260509041518 59 148 0.0 1.7 0.00 0.00 0.00 80 1011.5
20260509041445 59 148 0.0 1.7 0.00 0.00 0.00 80 1011.5
20260509041352 59 148 0.0 1.7 0.00 0.00 0.00 80 1011.5
20260509041217 59 148 0.0 1.7 0.00 0.00 0.00 80 1011.4
20260509041125 59 148 0.0 1.7 0.00 0.00 0.00 80 1011.4
20260509041033 59 148 0.0 1.7 0.00 0.00 0.00 80 1011.6
20260509040919 59 148 0.0 2.6 0.00 0.00 0.00 80 1011.6
20260509040850 59 148 0.0 3.5 0.00 0.00 0.00 80 1011.6
20260509040716 59 148 0.9 3.5 0.00 0.00 0.00 80 1011.7
20260509040623 59 148 0.9 3.5 0.00 0.00 0.00 80 1011.7
20260509040554 59 148 1.7 3.5 0.00 0.00 0.00 80 1011.6
20260509040312 59 148 1.7 3.5 0.00 0.00 0.00 80 1011.7
20260509040219 59 148 1.7 3.5 0.00 0.00 0.00 80 1011.7
20260509040127 59 148 0.9 3.5 0.00 0.00 0.00 80 1011.7
20260509040014 59 148 1.7 3.5 0.00 0.00 0.00 80 1011.6
20260509035923 59 146 1.7 3.5 0.00 0.00 0.00 80 1011.6
20260509035830 59 137 1.7 3.5 0.00 0.00 0.00 80 1011.7
20260509035721 59 145 1.7 3.5 0.00 0.00 0.00 80 1011.6
20260509035629 59 144 1.7 3.5 0.00 0.00 0.00 80 1011.6
20260509035517 59 133 2.6 3.5 0.00 0.00 0.00 80 1011.5
20260509035424 59 134 2.6 3.5 0.00 0.00 0.00 80 1011.5
20260509035312 59 130 2.6 3.5 0.00 0.00 0.00 80 1011.4
20260509035223 59 126 2.6 3.5 0.00 0.00 0.00 80 1011.4
20260509035130 59 128 2.6 2.6 0.00 0.00 0.00 80 1011.5
20260509035101 59 129 1.7 2.6 0.00 0.00 0.00 80 1011.5
20260509034834 59 132 0.9 2.6 0.00 0.00 0.00 80 1011.7
20260509034720 59 134 0.9 1.7 0.00 0.00 0.00 80 1011.6
20260509034612 59 171 0.0 0.9 0.00 0.00 0.00 79 1011.8
20260509034519 59 171 0.0 0.9 0.00 0.00 0.00 79 1011.8
20260509034427 59 171 0.0 0.0 0.00 0.00 0.00 79 1011.8
20260509034315 59 171 0.0 0.0 0.00 0.00 0.00 79 1011.8
20260509034221 59 171 0.0 0.0 0.00 0.00 0.00 79 1011.8
20260509034148 59 171 0.0 0.0 0.00 0.00 0.00 79 1011.8
20260509034020 59 171 0.0 0.0 0.00 0.00 0.00 79 1011.8
20260509033946 59 171 0.0 0.0 0.00 0.00 0.00 79 1011.8
20260509033813 59 171 0.0 0.9 0.00 0.00 0.00 79 1011.8
20260509033720 59 171 0.0 0.9 0.00 0.00 0.00 79 1011.8
20260509033628 59 171 0.0 0.9 0.00 0.00 0.00 79 1011.8
20260509033601 59 171 0.0 0.9 0.00 0.00 0.00 78 1011.7
20260509033315 60 171 0.0 0.9 0.00 0.00 0.00 78 1011.9
20260509033223 60 171 0.0 0.9 0.00 0.00 0.00 78 1011.9
20260509033130 60 171 0.0 0.9 0.00 0.00 0.00 78 1011.9
20260509033017 60 171 0.0 0.9 0.00 0.00 0.00 78 1011.9
20260509032929 60 171 0.0 1.7 0.00 0.00 0.00 78 1011.9
20260509032816 60 171 0.0 2.6 0.00 0.00 0.00 77 1011.9
20260509032722 60 171 0.0 2.6 0.00 0.00 0.00 77 1011.9
20260509032629 60 171 0.0 2.6 0.00 0.00 0.00 77 1011.8
20260509032518 60 171 0.0 2.6 0.00 0.00 0.00 77 1011.9
20260509032445 60 171 0.0 2.6 0.00 0.00 0.00 77 1011.9
20260509032315 60 171 0.0 2.6 0.00 0.00 0.00 77 1011.9
20260509032221 60 171 0.9 2.6 0.00 0.00 0.00 77 1011.9
20260509032128 60 171 0.9 2.6 0.00 0.00 0.00 77 1011.9
20260509032057 60 171 0.9 2.6 0.00 0.00 0.00 77 1011.9
20260509031815 60 182 0.9 2.6 0.00 0.00 0.00 77 1012.0
20260509031723 60 182 0.9 2.6 0.00 0.00 0.00 77 1012.0
20260509031630 60 182 0.9 2.6 0.00 0.00 0.00 77 1012.1
20260509031518 60 167 1.7 2.6 0.00 0.00 0.00 76 1012.1
20260509031426 60 184 1.7 2.6 0.00 0.00 0.00 76 1012.1
20260509031333 60 187 0.9 1.7 0.00 0.00 0.00 76 1012.0
20260509031222 60 189 0.9 2.6 0.00 0.00 0.00 76 1012.0
20260509031129 60 194 0.9 2.6 0.00 0.00 0.00 76 1012.1
20260509031016 60 158 0.9 2.6 0.00 0.00 0.00 76 1012.1
20260509030923 60 187 0.9 2.6 0.00 0.00 0.00 76 1012.1
20260509030831 60 187 0.0 2.6 0.00 0.00 0.00 76 1012.1
20260509030717 61 187 0.9 2.6 0.00 0.00 0.00 76 1012.2
20260509030630 61 187 0.9 2.6 0.00 0.00 0.00 76 1012.2
20260509030600 61 187 1.7 2.6 0.00 0.00 0.00 76 1012.1
20260509030314 61 186 0.9 2.6 0.00 0.00 0.00 76 1012.2
20260509030221 61 188 0.9 2.6 0.00 0.00 0.00 76 1012.2
20260509030113 61 184 0.9 2.6 0.00 0.00 0.00 75 1012.3
20260509030020 61 195 0.9 2.6 0.00 0.00 0.00 75 1012.3
20260509025928 61 195 0.9 2.6 0.00 0.00 0.00 75 1012.3
20260509025814 61 195 0.9 2.6 0.00 0.00 0.00 75 1012.2
20260509025722 61 195 1.7 2.6 0.00 0.00 0.00 75 1012.2
20260509025613 61 195 1.7 2.6 0.00 0.00 0.00 75 1012.2
20260509025520 61 186 0.9 2.6 0.00 0.00 0.00 75 1012.2
20260509025426 61 187 0.0 2.6 0.00 0.00 0.00 75 1012.2
20260509025333 61 150 0.0 2.6 0.00 0.00 0.00 75 1012.0
20260509025220 61 150 0.0 2.6 0.00 0.00 0.00 74 1012.0
20260509025128 61 150 0.9 2.6 0.00 0.00 0.00 74 1012.0
20260509025102 61 150 0.9 2.6 0.00 0.00 0.00 74 1011.9
20260509024815 61 150 0.9 2.6 0.00 0.00 0.00 74 1012.0
20260509024722 61 147 1.7 2.6 0.00 0.00 0.00 74 1012.0
20260509024649 61 147 1.7 2.6 0.00 0.00 0.00 74 1012.0
20260509024517 61 143 1.7 2.6 0.00 0.00 0.00 74 1011.9
20260509024423 61 150 1.7 2.6 0.00 0.00 0.00 74 1011.9
20260509024314 62 150 1.7 2.6 0.00 0.00 0.00 74 1012.0
20260509024222 62 142 1.7 2.6 0.00 0.00 0.00 74 1012.0
20260509024130 62 124 0.9 2.6 0.00 0.00 0.00 74 1012.0
20260509024018 62 136 0.9 3.5 0.00 0.00 0.00 74 1012.0
20260509023926 62 150 0.9 3.5 0.00 0.00 0.00 74 1012.0
20260509023818 62 150 0.9 3.5 0.00 0.00 0.00 74 1012.0
20260509023746 62 150 0.9 3.5 0.00 0.00 0.00 74 1012.0
20260509023632 62 159 0.9 3.5 0.00 0.00 0.00 74 1011.9
20260509023601 62 196 0.9 3.5 0.00 0.00 0.00 74 1012.0
20260509023334 62 167 0.9 4.3 0.00 0.00 0.00 73 1012.0
20260509023224 62 168 0.9 4.3 0.00 0.00 0.00 73 1012.0
20260509023112 62 191 0.9 4.3 0.00 0.00 0.00 73 1012.1
20260509023019 62 184 1.7 4.3 0.00 0.00 0.00 73 1012.2
20260509022925 62 148 1.7 5.2 0.00 0.00 0.00 73 1012.2
20260509022814 62 200 1.7 5.2 0.00 0.00 0.00 73 1012.1
20260509022722 62 201 1.7 5.2 0.00 0.00 0.00 73 1012.1
20260509022614 62 190 2.6 5.2 0.00 0.00 0.00 73 1012.2
20260509022522 62 209 2.6 5.2 0.00 0.00 0.00 73 1012.2
20260509022429 62 207 2.6 6.1 0.00 0.00 0.00 73 1012.1
20260509022317 62 183 2.6 6.1 0.00 0.00 0.00 73 1012.1
20260509022245 62 201 3.5 6.1 0.00 0.00 0.00 73 1012.1
20260509022116 62 188 3.5 6.1 0.00 0.00 0.00 73 1012.0
20260509022047 62 194 2.6 7.8 0.00 0.00 0.00 73 1012.0
20260509021820 62 176 2.6 7.8 0.00 0.00 0.00 73 1012.1
20260509021727 62 159 2.6 7.8 0.00 0.00 0.00 73 1012.1
20260509021615 62 151 4.3 7.8 0.00 0.00 0.00 73 1012.1
20260509021525 62 205 4.3 7.8 0.00 0.00 0.00 73 1012.1
20260509021433 63 190 3.5 7.8 0.00 0.00 0.00 72 1012.1
20260509021320 62 168 3.5 7.8 0.00 0.00 0.00 72 1012.1
20260509021227 63 211 3.5 7.8 0.00 0.00 0.00 72 1012.1
20260509021115 63 187 4.3 7.8 0.00 0.00 0.00 72 1012.0
20260509021023 63 175 3.5 7.8 0.00 0.00 0.00 72 1012.0
20260509020914 63 183 2.6 6.1 0.00 0.00 0.00 72 1012.1
20260509020822 63 214 2.6 6.1 0.00 0.00 0.00 72 1012.1
20260509020731 63 196 3.5 6.1 0.00 0.00 0.00 72 1012.1
20260509020637 63 131 3.5 6.1 0.00 0.00 0.00 72 1012.0
20260509020611 63 191 3.5 6.1 0.00 0.00 0.00 72 1011.9
20260509020325 63 178 3.5 6.1 0.00 0.00 0.00 72 1012.0
20260509020213 63 190 2.6 6.1 0.00 0.00 0.00 72 1012.0
20260509020120 63 216 1.7 5.2 0.00 0.00 0.00 72 1011.9
20260509020028 63 144 1.7 5.2 0.00 0.00 0.00 72 1011.9
20260509015915 63 192 1.7 5.2 0.00 0.00 0.00 72 1011.9
20260509015827 63 198 1.7 5.2 0.00 0.00 0.00 72 1011.9
20260509015715 63 195 1.7 5.2 0.00 0.00 0.00 72 1011.9
20260509015623 63 186 2.6 5.2 0.00 0.00 0.00 72 1011.9
20260509015531 63 145 2.6 5.2 0.00 0.00 0.00 72 1011.9
20260509015419 63 196 3.5 5.2 0.00 0.00 0.00 71 1011.9
20260509015330 63 198 3.5 5.2 0.00 0.00 0.00 71 1011.9
20260509015237 63 193 3.5 5.2 0.00 0.00 0.00 71 1012.0
20260509015123 63 197 2.6 5.2 0.00 0.00 0.00 71 1012.0
20260509015053 63 173 1.7 5.2 0.00 0.00 0.00 71 1011.9
20260509014827 63 198 1.7 5.2 0.00 0.00 0.00 71 1012.0
20260509014739 63 191 2.6 5.2 0.00 0.00 0.00 71 1011.8
20260509014626 63 234 2.6 5.2 0.00 0.00 0.00 71 1011.8
20260509014512 64 197 2.6 6.1 0.00 0.00 0.00 70 1012.0
20260509014420 64 196 2.6 6.1 0.00 0.00 0.00 70 1011.9
20260509014328 64 197 3.5 6.1 0.00 0.00 0.00 70 1011.9
20260509014215 64 184 2.6 6.1 0.00 0.00 0.00 70 1011.9
20260509014127 64 195 2.6 6.1 0.00 0.00 0.00 70 1011.9
20260509014015 64 199 3.5 6.1 0.00 0.00 0.00 70 1012.0
20260509013923 64 190 3.5 6.1 0.00 0.00 0.00 70 1012.0
20260509013830 64 168 4.3 6.1 0.00 0.00 0.00 70 1011.8
20260509013719 64 178 3.5 6.1 0.00 0.00 0.00 70 1011.8
20260509013630 64 206 2.6 6.1 0.00 0.00 0.00 70 1011.8
20260509013600 64 180 2.6 6.1 0.00 0.00 0.00 70 1011.8
20260509013314 64 200 3.5 6.1 0.00 0.00 0.00 69 1011.8
20260509013222 64 186 3.5 6.1 0.00 0.00 0.00 70 1011.8
20260509013113 64 190 2.6 5.2 0.00 0.00 0.00 69 1011.8
20260509013021 64 200 2.6 6.1 0.00 0.00 0.00 69 1011.8
20260509012927 64 181 2.6 6.1 0.00 0.00 0.00 69 1011.8
20260509012834 64 188 3.5 6.1 0.00 0.00 0.00 69 1011.8
20260509012720 64 205 3.5 6.1 0.00 0.00 0.00 69 1011.8
20260509012628 64 173 2.6 6.1 0.00 0.00 0.00 69 1011.8
20260509012520 64 182 2.6 6.1 0.00 0.00 0.00 69 1011.8
20260509012447 64 178 2.6 6.1 0.00 0.00 0.00 69 1011.8
20260509012311 64 195 3.5 6.1 0.00 0.00 0.00 69 1011.8
20260509012218 64 216 3.5 6.1 0.00 0.00 0.00 69 1011.7
20260509012146 64 176 4.3 6.1 0.00 0.00 0.00 69 1011.7
20260509012116 64 178 3.5 6.1 0.00 0.00 0.00 69 1011.7
20260509011814 65 192 2.6 6.1 0.00 0.00 0.00 69 1011.8
20260509011722 65 188 2.6 6.1 0.00 0.00 0.00 68 1011.8
20260509011630 65 184 3.5 6.1 0.00 0.00 0.00 68 1011.8
20260509011539 65 191 4.3 6.1 0.00 0.00 0.00 68 1011.8
20260509011425 65 207 4.3 6.1 0.00 0.00 0.00 68 1011.8
20260509011317 65 178 3.5 8.7 0.00 0.00 0.00 68 1011.7
20260509011225 65 238 2.6 8.7 0.00 0.00 0.00 68 1011.7
20260509011112 65 205 2.6 8.7 0.00 0.00 0.00 68 1011.7
20260509011039 65 146 2.6 10.4 0.00 0.00 0.00 68 1011.8
20260509010926 65 198 3.5 10.4 0.00 0.00 0.00 68 1011.8
20260509010814 65 174 4.3 10.4 0.00 0.00 0.00 68 1011.6
20260509010741 65 186 4.3 10.4 0.00 0.00 0.00 67 1011.6
20260509010630 65 211 5.2 10.4 0.00 0.00 0.00 68 1011.6
20260509010600 65 196 5.2 10.4 0.00 0.00 0.00 67 1011.7
20260509010333 65 186 5.2 10.4 0.00 0.00 0.00 67 1011.6
20260509010241 65 180 5.2 10.4 0.00 0.00 0.00 67 1011.7
20260509010127 65 205 5.2 10.4 0.00 0.00 0.00 67 1011.7
20260509010017 65 175 5.2 9.6 0.00 0.00 0.00 67 1011.6
20260509005924 65 217 6.1 9.6 0.00 0.00 0.00 67 1011.6
20260509005831 65 171 7.0 9.6 0.00 0.00 0.00 67 1011.6
20260509005719 65 205 6.1 9.6 0.00 0.00 0.00 67 1011.6
20260509005648 65 184 6.1 9.6 0.00 0.00 0.00 66 1011.6
20260509005514 65 186 4.3 9.6 0.00 0.00 0.00 67 1011.5
20260509005426 65 170 4.3 9.6 0.00 0.00 0.00 66 1011.5
20260509005314 65 194 4.3 9.6 0.00 0.00 0.00 66 1011.5
20260509005221 65 177 5.2 9.6 0.00 0.00 0.00 66 1011.5
20260509005129 66 184 5.2 9.6 0.00 0.00 0.00 66 1011.6
20260509005059 65 178 5.2 9.6 0.00 0.00 0.00 66 1011.6
20260509004817 66 239 5.2 10.4 0.00 0.00 0.00 66 1011.6
20260509004745 66 192 5.2 10.4 0.00 0.00 0.00 66 1011.6
20260509004630 66 176 5.2 10.4 0.00 0.00 0.00 66 1011.7
20260509004538 66 194 6.1 10.4 0.00 0.00 0.00 66 1011.8
20260509004425 66 190 7.0 10.4 0.00 0.00 0.00 66 1011.8
20260509004312 66 177 7.0 10.4 0.00 0.00 0.00 66 1011.7
20260509004244 66 207 7.0 10.4 0.00 0.00 0.00 66 1011.7
20260509004129 66 199 7.0 10.4 0.00 0.00 0.00 66 1011.6
20260509004016 66 196 7.0 10.4 0.00 0.00 0.00 66 1011.6
20260509003924 66 187 6.1 10.4 0.00 0.00 0.00 66 1011.6
20260509003851 66 242 6.1 10.4 0.00 0.00 0.00 65 1011.4
20260509003738 66 185 6.1 10.4 0.00 0.00 0.00 65 1011.5
20260509003625 66 210 6.1 10.4 0.00 0.00 0.00 65 1011.5
20260509003600 66 173 6.1 8.7 0.00 0.00 0.00 65 1011.6
20260509003332 66 198 5.2 10.4 0.00 0.00 0.00 65 1011.6
20260509003239 66 197 4.3 10.4 0.00 0.00 0.00 65 1011.6
20260509003126 67 221 4.3 10.4 0.00 0.00 0.00 65 1011.6
20260509003012 67 198 4.3 10.4 0.00 0.00 0.00 65 1011.7
20260509002924 67 138 4.3 10.4 0.00 0.00 0.00 65 1011.7
20260509002852 67 190 4.3 10.4 0.00 0.00 0.00 65 1011.6
20260509002717 67 137 4.3 10.4 0.00 0.00 0.00 65 1011.6
20260509002625 67 195 5.2 10.4 0.00 0.00 0.00 65 1011.6
20260509002513 67 200 6.1 10.4 0.00 0.00 0.00 65 1011.5
20260509002440 67 183 5.2 9.6 0.00 0.00 0.00 65 1011.6
20260509002347 67 200 5.2 9.6 0.00 0.00 0.00 65 1011.6
20260509002218 67 180 4.3 9.6 0.00 0.00 0.00 64 1011.6
20260509002126 67 212 5.2 9.6 0.00 0.00 0.00 64 1011.6
20260509002056 67 186 5.2 9.6 0.00 0.00 0.00 64 1011.6
20260509001829 67 227 6.1 9.6 0.00 0.00 0.00 64 1011.8
20260509001741 67 209 7.0 11.3 0.00 0.00 0.00 64 1011.8
20260509001628 67 188 6.1 11.3 0.00 0.00 0.00 64 1011.8
20260509001515 67 184 6.1 11.3 0.00 0.00 0.00 64 1011.8
20260509001423 67 186 5.2 11.3 0.00 0.00 0.00 64 1011.8
20260509001331 67 162 6.1 11.3 0.00 0.00 0.00 63 1011.9
20260509001219 67 190 5.2 11.3 0.00 0.00 0.00 63 1011.8
20260509001130 67 177 7.0 11.3 0.00 0.00 0.00 63 1011.8
20260509001016 67 163 7.0 11.3 0.00 0.00 0.00 63 1011.8
20260509000924 67 160 7.0 11.3 0.00 0.00 0.00 63 1011.8
20260509000831 67 156 6.1 11.3 0.00 0.00 0.00 63 1011.7
20260509000717 67 167 5.2 13.9 0.00 0.00 0.00 63 1011.7
20260509000643 67 219 6.1 13.9 0.00 0.00 0.00 63 1011.7
20260509000617 68 196 6.1 13.9 0.00 0.00 0.00 62 1011.8
20260509000330 68 194 7.8 13.9 0.00 0.00 0.00 62 1011.8
20260509000219 68 195 8.7 13.9 0.00 0.00 0.00 62 1011.7
20260509000123 68 206 7.8 13.9 0.00 0.00 0.00 61 1011.7
20260509000015 68 196 7.0 13.9 0.00 0.00 0.00 61 1011.7
20260508235923 68 184 6.1 13.0 0.00 0.00 0.00 60 1011.7
20260508235829 68 183 5.2 12.2 0.00 0.00 0.00 60 1011.7
20260508235716 68 189 6.1 10.4 0.00 0.00 0.00 60 1011.7
20260508235623 68 175 5.2 10.4 0.00 0.00 0.00 60 1011.7
20260508235515 68 198 5.2 10.4 0.00 0.00 0.00 60 1011.7
20260508235421 68 188 5.2 10.4 0.00 0.00 0.00 59 1011.7
20260508235329 68 171 5.2 10.4 0.00 0.00 0.00 59 1011.7
20260508235218 68 153 6.1 10.4 0.00 0.00 0.00 59 1011.7
20260508235125 68 184 7.0 10.4 0.00 0.00 0.00 59 1011.7
20260508235059 68 192 7.0 10.4 0.00 0.00 0.00 59 1011.7
20260508234813 68 174 7.0 10.4 0.00 0.00 0.00 58 1011.6
20260508234721 68 181 7.0 10.4 0.00 0.00 0.00 59 1011.6
20260508234628 68 202 7.0 10.4 0.00 0.00 0.00 58 1011.6
20260508234515 68 156 7.0 10.4 0.00 0.00 0.00 58 1011.6
20260508234427 68 163 7.0 12.2 0.00 0.00 0.00 58 1011.6
20260508234316 69 180 6.1 12.2 0.00 0.00 0.00 58 1011.6
20260508234222 69 175 5.2 12.2 0.00 0.00 0.00 58 1011.6
20260508234111 69 216 5.2 12.2 0.00 0.00 0.00 59 1011.6
20260508234018 69 171 6.1 12.2 0.00 0.00 0.00 58 1011.8
20260508233946 69 188 6.1 12.2 0.00 0.00 0.00 58 1011.8
20260508233837 69 184 6.1 12.2 0.00 0.00 0.00 58 1011.8
20260508233723 69 192 7.0 12.2 0.00 0.00 0.00 58 1011.8
20260508233631 69 180 7.8 12.2 0.00 0.00 0.00 57 1011.8
20260508233601 69 184 7.0 12.2 0.00 0.00 0.00 58 1011.8
20260508233312 69 192 7.0 12.2 0.00 0.00 0.00 57 1011.9
20260508233225 69 202 7.0 12.2 0.00 0.00 0.00 58 1011.9
20260508233112 69 210 7.8 12.2 0.00 0.00 0.00 57 1011.8
20260508233020 69 211 7.0 10.4 0.00 0.00 0.00 57 1011.9
20260508232928 69 167 7.0 10.4 0.00 0.00 0.00 57 1011.9
20260508232836 69 168 6.1 11.3 0.00 0.00 0.00 56 1011.8
20260508232721 69 185 5.2 8.7 0.00 0.00 0.00 56 1011.8
20260508232613 69 170 4.3 8.7 0.00 0.00 0.00 56 1011.8
20260508232522 69 193 4.3 8.7 0.00 0.00 0.00 56 1011.8
20260508232429 69 197 5.2 8.7 0.00 0.00 0.00 56 1011.8
20260508232316 69 164 4.3 9.6 0.00 0.00 0.00 55 1011.9
20260508232223 69 179 4.3 9.6 0.00 0.00 0.00 55 1011.9
20260508232150 69 138 5.2 9.6 0.00 0.00 0.00 55 1011.8
20260508232124 69 207 5.2 9.6 0.00 0.00 0.00 55 1011.8
20260508231818 69 212 5.2 10.4 0.00 0.00 0.00 54 1011.8
20260508231743 69 200 6.1 10.4 0.00 0.00 0.00 54 1011.8
20260508231629 69 210 7.0 10.4 0.00 0.00 0.00 54 1011.8
20260508231520 70 173 7.0 10.4 0.00 0.00 0.00 54 1011.7
20260508231427 70 194 6.1 10.4 0.00 0.00 0.00 54 1011.7
20260508231314 70 200 6.1 10.4 0.00 0.00 0.00 53 1011.7
20260508231221 70 188 5.2 10.4 0.00 0.00 0.00 53 1011.7
20260508231128 70 205 5.2 10.4 0.00 0.00 0.00 53 1011.7
20260508231016 70 191 6.1 13.9 0.00 0.00 0.00 52 1011.8
20260508230927 70 184 7.0 13.9 0.00 0.00 0.00 52 1011.8
20260508230834 70 201 7.8 13.9 0.00 0.00 0.00 52 1011.8
20260508230722 70 202 7.0 13.9 0.00 0.00 0.00 52 1011.8
20260508230629 71 209 7.8 13.9 0.00 0.00 0.00 51 1011.7
20260508230600 71 167 7.0 13.9 0.00 0.00 0.00 51 1011.8
20260508230318 71 199 6.1 13.9 0.00 0.00 0.00 51 1011.7
20260508230245 71 210 5.2 13.9 0.00 0.00 0.00 51 1011.7
20260508230111 71 221 7.0 13.9 0.00 0.00 0.00 51 1011.8
20260508230019 71 202 7.8 13.9 0.00 0.00 0.00 51 1011.8
20260508225925 71 170 7.0 13.9 0.00 0.00 0.00 51 1011.8
20260508225817 71 205 7.8 13.0 0.00 0.00 0.00 51 1011.9
20260508225724 71 178 7.0 13.0 0.00 0.00 0.00 51 1011.9
20260508225631 71 192 7.0 13.0 0.00 0.00 0.00 51 1011.9
20260508225539 71 103 6.1 9.6 0.00 0.00 0.00 51 1011.9
20260508225425 71 185 5.2 9.6 0.00 0.00 0.00 52 1011.9
20260508225312 71 183 5.2 8.7 0.00 0.00 0.00 51 1011.8
20260508225223 71 225 5.2 8.7 0.00 0.00 0.00 51 1011.8
20260508225150 71 224 6.1 8.7 0.00 0.00 0.00 51 1011.8
20260508225121 71 200 6.1 8.7 0.00 0.00 0.00 50 1011.9
20260508224833 71 203 6.1 10.4 0.00 0.00 0.00 50 1011.9
20260508224718 72 176 7.0 10.4 0.00 0.00 0.00 50 1011.9
20260508224645 72 177 7.0 10.4 0.00 0.00 0.00 50 1011.9
20260508224516 72 194 7.0 10.4 0.00 0.00 0.00 50 1012.0
20260508224423 72 174 6.1 11.3 0.00 0.00 0.00 50 1012.0
20260508224330 72 190 5.2 11.3 0.00 0.00 0.00 50 1012.0
20260508224219 72 200 6.1 11.3 0.00 0.00 0.00 49 1012.0
20260508224126 72 196 6.1 11.3 0.00 0.00 0.00 49 1012.0
20260508224018 72 257 7.0 11.3 0.00 0.00 0.00 50 1012.0
20260508223925 72 186 7.0 11.3 0.00 0.00 0.00 51 1012.0
20260508223834 72 180 7.8 11.3 0.00 0.00 0.00 51 1012.0
20260508223722 72 167 7.8 11.3 0.00 0.00 0.00 51 1012.0
20260508223648 72 186 7.0 11.3 0.00 0.00 0.00 50 1012.0
20260508223558 72 186 7.0 13.0 0.00 0.00 0.00 50 1012.1
20260508223312 72 181 6.1 9.6 0.00 0.00 0.00 51 1012.0
20260508223220 72 172 5.2 9.6 0.00 0.00 0.00 51 1012.0
20260508223127 72 184 5.2 9.6 0.00 0.00 0.00 51 1012.0
20260508223014 72 217 5.2 10.4 0.00 0.00 0.00 51 1012.0
20260508222941 72 202 6.1 10.4 0.00 0.00 0.00 52 1012.0
20260508222812 72 221 7.0 10.4 0.00 0.00 0.00 51 1012.0
20260508222720 72 212 7.0 10.4 0.00 0.00 0.00 51 1012.0
20260508222627 72 171 7.0 10.4 0.00 0.00 0.00 51 1012.0
20260508222513 72 213 6.1 10.4 0.00 0.00 0.00 52 1012.0
20260508222421 72 228 5.2 10.4 0.00 0.00 0.00 52 1012.1
20260508222328 72 211 6.1 10.4 0.00 0.00 0.00 52 1012.1
20260508222218 72 213 7.0 10.4 0.00 0.00 0.00 52 1012.1
20260508222145 72 212 7.0 10.4 0.00 0.00 0.00 51 1012.1
20260508222115 72 185 7.0 10.4 0.00 0.00 0.00 52 1012.1
20260508221828 72 212 7.8 10.4 0.00 0.00 0.00 53 1011.9
20260508221718 72 188 7.0 10.4 0.00 0.00 0.00 52 1012.0
20260508221625 72 202 6.1 12.2 0.00 0.00 0.00 52 1012.0
20260508221534 72 205 7.0 12.2 0.00 0.00 0.00 51 1012.0
20260508221421 72 180 7.0 12.2 0.00 0.00 0.00 52 1012.0
20260508221348 72 207 7.0 12.2 0.00 0.00 0.00 52 1012.1
20260508221215 72 178 6.1 12.2 0.00 0.00 0.00 51 1012.0
20260508221122 72 189 6.1 12.2 0.00 0.00 0.00 51 1012.0
20260508221033 72 225 7.0 12.2 0.00 0.00 0.00 51 1012.2
20260508220919 72 223 7.8 12.2 0.00 0.00 0.00 51 1012.2
20260508220847 72 214 7.0 12.2 0.00 0.00 0.00 51 1012.2
20260508220714 72 194 6.1 12.2 0.00 0.00 0.00 51 1012.2
20260508220623 72 226 5.2 12.2 0.00 0.00 0.00 52 1012.2
20260508220557 72 224 6.1 12.2 0.00 0.00 0.00 52 1012.2
20260508220350 72 180 7.0 12.2 0.00 0.00 0.00 52 1012.1
20260508220215 72 167 8.7 12.2 0.00 0.00 0.00 52 1012.1
20260508220121 71 205 7.0 13.0 0.00 0.00 0.00 52 1012.1
20260508220029 71 191 7.0 14.8 0.00 0.00 0.00 52 1012.1
20260508215936 71 192 5.2 13.0 0.00 0.00 0.00 54 1012.2
20260508215823 71 195 6.1 13.0 0.00 0.00 0.00 52 1012.2
20260508215734 71 186 7.0 13.0 0.00 0.00 0.00 51 1012.1
20260508215621 71 202 7.8 13.0 0.00 0.00 0.00 51 1012.1
20260508215529 71 182 7.8 13.0 0.00 0.00 0.00 51 1012.1
20260508215417 71 169 7.8 12.2 0.00 0.00 0.00 51 1012.1
20260508215325 72 199 8.7 13.9 0.00 0.00 0.00 51 1012.1
20260508215216 72 191 7.8 12.2 0.00 0.00 0.00 51 1012.1
20260508215125 72 207 7.0 12.2 0.00 0.00 0.00 52 1012.1
20260508215055 72 194 7.0 11.3 0.00 0.00 0.00 52 1012.2
20260508214829 72 299 7.0 12.2 0.00 0.00 0.00 52 1012.1
20260508214716 72 170 6.1 12.2 0.00 0.00 0.00 52 1012.1
20260508214627 72 188 5.2 12.2 0.00 0.00 0.00 52 1012.1
20260508214514 72 190 4.3 12.2 0.00 0.00 0.00 52 1012.2
20260508214422 72 183 5.2 12.2 0.00 0.00 0.00 52 1012.2
20260508214329 72 147 6.1 12.2 0.00 0.00 0.00 51 1012.1
20260508214215 72 184 7.0 12.2 0.00 0.00 0.00 51 1012.1
20260508214127 72 191 6.1 12.2 0.00 0.00 0.00 51 1012.1
20260508214034 72 197 5.2 10.4 0.00 0.00 0.00 52 1012.1
20260508213941 72 196 5.2 9.6 0.00 0.00 0.00 51 1012.1
20260508213826 72 163 6.1 9.6 0.00 0.00 0.00 51 1012.1
20260508213714 72 182 4.3 10.4 0.00 0.00 0.00 52 1012.1
20260508213621 72 182 4.3 6.1 0.00 0.00 0.00 52 1012.1
20260508213555 72 182 3.5 7.0 0.00 0.00 0.00 52 1012.1
20260508213329 72 236 4.3 8.7 0.00 0.00 0.00 54 1012.1
20260508213236 72 196 4.3 8.7 0.00 0.00 0.00 52 1012.1
20260508213123 72 133 4.3 8.7 0.00 0.00 0.00 53 1012.1
20260508213030 72 160 3.5 8.7 0.00 0.00 0.00 52 1012.0
20260508212921 72 202 2.6 8.7 0.00 0.00 0.00 51 1012.0
20260508212848 72 198 3.5 8.7 0.00 0.00 0.00 52 1012.0
20260508212734 72 161 4.3 8.7 0.00 0.00 0.00 52 1011.9
20260508212619 72 191 4.3 8.7 0.00 0.00 0.00 52 1011.9
20260508212525 72 139 4.3 8.7 0.00 0.00 0.00 52 1011.9
20260508212413 72 186 5.2 10.4 0.00 0.00 0.00 51 1011.9
20260508212320 72 153 5.2 10.4 0.00 0.00 0.00 51 1011.9
20260508212212 72 115 4.3 10.4 0.00 0.00 0.00 51 1012.0
20260508212120 72 126 2.6 9.6 0.00 0.00 0.00 51 1012.0
20260508212051 72 168 3.5 9.6 0.00 0.00 0.00 51 1012.0
20260508211825 72 94 4.3 9.6 0.00 0.00 0.00 51 1011.9
20260508211717 72 195 7.0 9.6 0.00 0.00 0.00 50 1012.1
20260508211625 73 140 7.0 9.6 0.00 0.00 0.00 51 1012.1
20260508211512 73 94 6.1 9.6 0.00 0.00 0.00 50 1012.2
20260508211420 73 130 5.2 10.4 0.00 0.00 0.00 50 1012.2
20260508211326 73 121 4.3 9.6 0.00 0.00 0.00 50 1012.2
20260508211219 73 151 4.3 10.4 0.00 0.00 0.00 49 1012.1
20260508211127 73 157 3.5 10.4 0.00 0.00 0.00 50 1012.1
20260508211015 73 238 4.3 10.4 0.00 0.00 0.00 52 1012.1
20260508210922 72 200 5.2 10.4 0.00 0.00 0.00 50 1012.1
20260508210828 73 200 6.1 10.4 0.00 0.00 0.00 49 1012.1
20260508210716 73 185 6.1 10.4 0.00 0.00 0.00 49 1012.2
20260508210627 73 215 5.2 10.4 0.00 0.00 0.00 49 1012.2
20260508210557 73 209 4.3 10.4 0.00 0.00 0.00 50 1012.1
20260508210330 73 171 4.3 7.8 0.00 0.00 0.00 49 1012.1
20260508210218 73 150 4.3 7.8 0.00 0.00 0.00 49 1012.1
20260508210130 73 193 4.3 7.8 0.00 0.00 0.00 50 1012.1
20260508210037 73 192 5.2 7.8 0.00 0.00 0.00 49 1012.0
20260508205924 73 159 5.2 7.8 0.00 0.00 0.00 48 1012.0
20260508205812 73 192 3.5 7.8 0.00 0.00 0.00 50 1012.0
20260508205719 73 160 3.5 7.8 0.00 0.00 0.00 49 1012.0
20260508205626 72 192 3.5 9.6 0.00 0.00 0.00 49 1012.0
20260508205518 72 200 4.3 9.6 0.00 0.00 0.00 48 1012.1
20260508205425 72 209 4.3 9.6 0.00 0.00 0.00 48 1012.1
20260508205311 73 203 4.3 9.6 0.00 0.00 0.00 48 1012.1
20260508205219 72 232 4.3 9.6 0.00 0.00 0.00 47 1012.1
20260508205126 72 209 5.2 9.6 0.00 0.00 0.00 47 1012.1
20260508205059 72 173 5.2 9.6 0.00 0.00 0.00 47 1012.0
20260508204813 72 186 7.0 9.6 0.00 0.00 0.00 47 1012.0
20260508204720 72 223 7.0 9.6 0.00 0.00 0.00 46 1012.0
20260508204627 72 202 6.1 9.6 0.00 0.00 0.00 47 1012.0
20260508204535 73 212 6.1 12.2 0.00 0.00 0.00 48 1012.1
20260508204425 72 175 4.3 12.2 0.00 0.00 0.00 47 1012.1
20260508204313 72 241 2.6 12.2 0.00 0.00 0.00 47 1012.1
20260508204221 73 230 3.5 12.2 0.00 0.00 0.00 47 1012.1
20260508204128 72 166 6.1 12.2 0.00 0.00 0.00 48 1012.1
20260508204036 72 203 7.8 12.2 0.00 0.00 0.00 47 1012.1
20260508203924 72 209 7.8 12.2 0.00 0.00 0.00 48 1012.1
20260508203816 72 151 6.1 10.4 0.00 0.00 0.00 48 1012.1
20260508203744 72 123 3.5 9.6 0.00 0.00 0.00 48 1012.1
20260508203631 72 142 2.6 9.6 0.00 0.00 0.00 49 1012.1
20260508203601 72 165 3.5 9.6 0.00 0.00 0.00 48 1012.2
20260508203335 72 158 3.5 9.6 0.00 0.00 0.00 48 1012.1
20260508203226 72 144 3.5 9.6 0.00 0.00 0.00 50 1012.1
20260508203113 72 151 2.6 9.6 0.00 0.00 0.00 47 1012.2
20260508203022 72 146 4.3 9.6 0.00 0.00 0.00 48 1012.2
20260508202929 72 132 4.3 13.0 0.00 0.00 0.00 47 1012.3
20260508202838 72 138 6.1 13.0 0.00 0.00 0.00 47 1012.5
20260508202724 72 128 6.1 13.0 0.00 0.00 0.00 47 1012.5
20260508202615 72 135 7.0 13.0 0.00 0.00 0.00 46 1012.5
20260508202522 72 134 6.1 13.0 0.00 0.00 0.00 45 1012.5
20260508202431 72 182 5.2 13.0 0.00 0.00 0.00 47 1012.5
20260508202319 72 111 6.1 13.0 0.00 0.00 0.00 46 1012.5
20260508202246 72 198 6.1 13.0 0.00 0.00 0.00 45 1012.5
20260508202113 72 180 5.2 12.2 0.00 0.00 0.00 46 1012.7
20260508202048 72 185 5.2 12.2 0.00 0.00 0.00 46 1012.7
20260508201842 72 116 4.3 12.2 0.00 0.00 0.00 45 1013.0
20260508201729 72 140 4.3 12.2 0.00 0.00 0.00 45 1013.0
20260508201638 72 126 5.2 12.2 0.00 0.00 0.00 44 1013.1
20260508201525 73 115 5.2 12.2 0.00 0.00 0.00 45 1013.1
20260508201416 73 138 5.2 12.2 0.00 0.00 0.00 46 1013.1
20260508201325 73 119 5.2 12.2 0.00 0.00 0.00 44 1013.1
20260508201213 73 142 6.1 10.4 0.00 0.00 0.00 45 1013.1
20260508201119 73 146 6.1 10.4 0.00 0.00 0.00 44 1013.1
20260508201026 73 144 5.2 10.4 0.00 0.00 0.00 43 1013.1
20260508200933 73 191 6.1 10.4 0.00 0.00 0.00 41 1013.1
20260508200843 73 150 7.0 10.4 0.00 0.00 0.00 42 1013.1
20260508200728 73 184 5.2 10.4 0.00 0.00 0.00 42 1013.1
20260508200616 72 184 3.5 10.4 0.00 0.00 0.00 44 1013.0
20260508200546 72 190 3.5 10.4 0.00 0.00 0.00 44 1013.0
20260508200320 72 190 6.1 10.4 0.00 0.00 0.00 45 1012.7
20260508200211 72 156 6.1 10.4 0.00 0.00 0.00 45 1012.7
20260508200120 72 176 6.1 10.4 0.00 0.00 0.00 45 1012.7
20260508200027 72 207 4.3 8.7 0.00 0.00 0.00 45 1012.7
20260508195914 72 161 3.5 8.7 0.00 0.00 0.00 44 1012.7
20260508195822 72 158 2.6 8.7 0.00 0.00 0.00 44 1012.7
20260508195734 72 200 2.6 8.7 0.00 0.00 0.00 45 1012.8
20260508195621 72 206 3.5 8.7 0.00 0.00 0.00 46 1012.8
20260508195528 72 113 4.3 8.7 0.00 0.00 0.00 44 1012.7
20260508195417 72 140 4.3 8.7 0.00 0.00 0.00 45 1012.8
20260508195325 72 135 4.3 8.7 0.00 0.00 0.00 44 1012.8
20260508195212 72 146 5.2 8.7 0.00 0.00 0.00 47 1012.8
20260508195123 72 165 5.2 8.7 0.00 0.00 0.00 47 1012.8
20260508195057 72 136 5.2 7.8 0.00 0.00 0.00 47 1012.8
20260508194811 72 176 4.3 7.8 0.00 0.00 0.00 46 1012.8
20260508194719 72 229 4.3 7.8 0.00 0.00 0.00 45 1012.8
20260508194630 72 177 4.3 7.8 0.00 0.00 0.00 46 1012.8
20260508194517 72 182 5.2 7.8 0.00 0.00 0.00 46 1012.7
20260508194425 72 159 5.2 7.8 0.00 0.00 0.00 46 1012.7
20260508194313 72 115 3.5 7.8 0.00 0.00 0.00 45 1012.6
20260508194241 72 161 2.6 7.8 0.00 0.00 0.00 45 1012.6
20260508194126 72 67 2.6 7.8 0.00 0.00 0.00 46 1012.6
20260508194017 71 135 4.3 7.8 0.00 0.00 0.00 46 1012.7
20260508193925 71 218 5.2 7.8 0.00 0.00 0.00 48 1012.7
20260508193812 71 122 5.2 7.8 0.00 0.00 0.00 48 1012.8
20260508193719 71 103 4.3 7.8 0.00 0.00 0.00 48 1012.8
20260508193646 71 175 4.3 7.8 0.00 0.00 0.00 48 1012.8
20260508193621 71 147 4.3 7.8 0.00 0.00 0.00 48 1012.9
20260508193313 71 163 4.3 7.8 0.00 0.00 0.00 49 1013.0
20260508193241 71 129 4.3 7.8 0.00 0.00 0.00 46 1013.0
20260508193129 70 122 4.3 7.8 0.00 0.00 0.00 46 1013.0
20260508193016 70 209 4.3 7.8 0.00 0.00 0.00 46 1013.0
20260508192945 70 140 4.3 7.8 0.00 0.00 0.00 46 1013.0
20260508192815 71 171 3.5 7.0 0.00 0.00 0.00 48 1013.0
20260508192744 71 119 2.6 7.8 0.00 0.00 0.00 48 1013.0
20260508192629 70 187 3.5 7.8 0.00 0.00 0.00 47 1013.0
20260508192536 71 121 3.5 7.8 0.00 0.00 0.00 48 1013.1
20260508192423 71 119 4.3 7.8 0.00 0.00 0.00 48 1013.1
20260508192311 71 102 4.3 7.8 0.00 0.00 0.00 46 1013.1
20260508192240 71 144 5.2 9.6 0.00 0.00 0.00 48 1013.1
20260508192149 71 148 5.2 9.6 0.00 0.00 0.00 48 1013.1
20260508192059 71 95 4.3 9.6 0.00 0.00 0.00 46 1013.1
20260508191811 71 163 3.5 9.6 0.00 0.00 0.00 47 1013.1
20260508191718 71 175 3.5 9.6 0.00 0.00 0.00 46 1013.2
20260508191625 71 191 3.5 9.6 0.00 0.00 0.00 45 1013.2
20260508191516 71 214 5.2 9.6 0.00 0.00 0.00 45 1013.3
20260508191424 71 181 6.1 9.6 0.00 0.00 0.00 46 1013.3
20260508191311 71 255 4.3 8.7 0.00 0.00 0.00 46 1013.3
20260508191218 71 163 4.3 8.7 0.00 0.00 0.00 48 1013.3
20260508191126 71 116 4.3 8.7 0.00 0.00 0.00 48 1013.3
20260508191018 71 175 3.5 8.7 0.00 0.00 0.00 47 1013.4
20260508190925 71 179 2.6 8.7 0.00 0.00 0.00 48 1013.4
20260508190813 71 142 3.5 8.7 0.00 0.00 0.00 48 1013.2
20260508190720 71 167 4.3 8.7 0.00 0.00 0.00 47 1013.3
20260508190628 71 154 5.2 8.7 0.00 0.00 0.00 48 1013.3
20260508190603 71 143 5.2 9.6 0.00 0.00 0.00 48 1013.3
20260508190336 71 178 4.3 9.6 0.00 0.00 0.00 49 1013.5
20260508190222 71 116 3.5 8.7 0.00 0.00 0.00 48 1013.5
20260508190149 71 167 3.5 8.7 0.00 0.00 0.00 47 1013.4
20260508190015 71 140 3.5 9.6 0.00 0.00 0.00 47 1013.5
20260508185922 71 160 4.3 9.6 0.00 0.00 0.00 48 1013.5
20260508185812 71 138 2.6 9.6 0.00 0.00 0.00 48 1013.6
20260508185740 71 151 2.6 9.6 0.00 0.00 0.00 50 1013.7
20260508185625 70 120 3.5 9.6 0.00 0.00 0.00 49 1013.7
20260508185514 70 184 5.2 9.6 0.00 0.00 0.00 47 1013.8
20260508185422 70 190 5.2 9.6 0.00 0.00 0.00 46 1013.8
20260508185313 70 188 6.1 9.6 0.00 0.00 0.00 47 1013.7
20260508185221 70 135 5.2 9.6 0.00 0.00 0.00 48 1013.7
20260508185129 70 195 4.3 8.7 0.00 0.00 0.00 48 1013.7
20260508185100 70 171 3.5 8.7 0.00 0.00 0.00 49 1013.7
20260508184814 70 145 4.3 8.7 0.00 0.00 0.00 48 1013.6
20260508184746 70 153 5.2 8.7 0.00 0.00 0.00 48 1013.6
20260508184633 70 129 5.2 10.4 0.00 0.00 0.00 47 1013.6
20260508184519 70 121 3.5 10.4 0.00 0.00 0.00 47 1013.5
20260508184426 70 147 1.7 10.4 0.00 0.00 0.00 45 1013.5
20260508184313 70 56 1.7 10.4 0.00 0.00 0.00 45 1013.7
20260508184240 70 96 3.5 10.4 0.00 0.00 0.00 45 1013.7
20260508184127 70 157 4.3 10.4 0.00 0.00 0.00 43 1013.7
20260508184018 70 193 5.2 10.4 0.00 0.00 0.00 43 1013.7
20260508183925 70 192 5.2 10.4 0.00 0.00 0.00 47 1013.7
20260508183833 70 134 7.0 10.4 0.00 0.00 0.00 46 1013.7
20260508183720 70 136 5.2 11.3 0.00 0.00 0.00 47 1013.6
20260508183647 70 139 3.5 11.3 0.00 0.00 0.00 47 1013.6
20260508183623 70 136 2.6 8.7 0.00 0.00 0.00 47 1013.7
20260508183316 70 133 4.3 8.7 0.00 0.00 0.00 46 1013.9
20260508183224 70 120 5.2 8.7 0.00 0.00 0.00 47 1013.9
20260508183131 70 131 5.2 8.7 0.00 0.00 0.00 47 1013.9
20260508183019 70 120 3.5 7.0 0.00 0.00 0.00 47 1013.9
20260508182929 70 86 3.5 7.0 0.00 0.00 0.00 47 1013.9
20260508182817 70 121 3.5 7.0 0.00 0.00 0.00 47 1013.9
20260508182725 70 117 3.5 7.8 0.00 0.00 0.00 48 1013.9
20260508182612 70 92 3.5 8.7 0.00 0.00 0.00 47 1013.9
20260508182519 70 76 3.5 8.7 0.00 0.00 0.00 46 1013.9
20260508182446 70 120 3.5 8.7 0.00 0.00 0.00 46 1013.9
20260508182315 70 144 4.3 8.7 0.00 0.00 0.00 46 1013.9
20260508182223 70 115 5.2 8.7 0.00 0.00 0.00 47 1013.9
20260508182130 70 113 5.2 9.6 0.00 0.00 0.00 46 1013.9
20260508182100 70 117 4.3 9.6 0.00 0.00 0.00 47 1013.8
20260508181818 70 46 3.5 9.6 0.00 0.00 0.00 45 1014.0
20260508181725 70 124 3.5 9.6 0.00 0.00 0.00 45 1014.0
20260508181612 70 120 3.5 9.6 0.00 0.00 0.00 46 1014.2
20260508181519 70 81 3.5 9.6 0.00 0.00 0.00 45 1014.3
20260508181427 70 151 4.3 9.6 0.00 0.00 0.00 46 1014.3
20260508181336 70 99 5.2 9.6 0.00 0.00 0.00 45 1014.4
20260508181228 70 148 6.1 9.6 0.00 0.00 0.00 45 1014.4
20260508181136 70 90 4.3 9.6 0.00 0.00 0.00 45 1014.4
20260508181021 70 127 3.5 8.7 0.00 0.00 0.00 46 1014.4
20260508180929 70 108 4.3 8.7 0.00 0.00 0.00 46 1014.5
20260508180817 70 110 5.2 9.6 0.00 0.00 0.00 45 1014.5
20260508180724 70 141 5.2 10.4 0.00 0.00 0.00 45 1014.5
20260508180617 70 137 3.5 10.4 0.00 0.00 0.00 43 1014.6
20260508180547 70 93 4.3 10.4 0.00 0.00 0.00 44 1014.6
20260508180340 70 69 3.5 10.4 0.00 0.00 0.00 46 1014.6
20260508180228 70 178 4.3 10.4 0.00 0.00 0.00 43 1014.6
20260508180115 70 147 5.2 10.4 0.00 0.00 0.00 44 1014.7
20260508180027 70 119 6.1 10.4 0.00 0.00 0.00 43 1014.7
20260508175936 70 155 5.2 10.4 0.00 0.00 0.00 44 1014.6
20260508175823 70 124 3.5 8.7 0.00 0.00 0.00 44 1014.6
20260508175750 70 88 2.6 8.7 0.00 0.00 0.00 41 1014.7
20260508175615 70 96 3.5 9.6 0.00 0.00 0.00 43 1014.6
20260508175524 70 105 3.5 9.6 0.00 0.00 0.00 41 1014.6
20260508175416 70 127 4.3 9.6 0.00 0.00 0.00 42 1014.7
20260508175323 70 131 5.2 9.6 0.00 0.00 0.00 42 1014.7
20260508175211 71 108 3.5 9.6 0.00 0.00 0.00 42 1014.7
20260508175119 71 107 3.5 9.6 0.00 0.00 0.00 41 1014.8
20260508175049 71 118 4.3 9.6 0.00 0.00 0.00 41 1014.8
20260508174828 71 122 6.1 9.6 0.00 0.00 0.00 42 1014.9
20260508174714 71 106 4.3 9.6 0.00 0.00 0.00 43 1014.9
20260508174622 71 155 2.6 7.0 0.00 0.00 0.00 43 1014.9
20260508174530 71 92 1.7 4.3 0.00 0.00 0.00 43 1014.9
20260508174417 71 217 1.7 4.3 0.00 0.00 0.00 43 1015.0
20260508174328 71 350 1.7 4.3 0.00 0.00 0.00 43 1015.0
20260508174215 70 326 1.7 4.3 0.00 0.00 0.00 44 1014.9
20260508174122 70 54 2.6 7.8 0.00 0.00 0.00 44 1014.9
20260508174030 70 49 1.7 7.8 0.00 0.00 0.00 44 1014.9
20260508173917 70 80 1.7 8.7 0.00 0.00 0.00 44 1015.0
20260508173824 70 63 1.7 8.7 0.00 0.00 0.00 43 1015.0
20260508173716 70 86 2.6 9.6 0.00 0.00 0.00 46 1015.1
20260508173644 70 40 2.6 9.6 0.00 0.00 0.00 44 1015.1
20260508173614 70 72 3.5 9.6 0.00 0.00 0.00 44 1015.0
20260508173326 70 42 4.3 9.6 0.00 0.00 0.00 43 1015.2
20260508173217 70 112 6.1 9.6 0.00 0.00 0.00 45 1015.2
20260508173125 70 144 7.0 9.6 0.00 0.00 0.00 43 1015.2
20260508173013 70 142 7.0 9.6 0.00 0.00 0.00 44 1015.2
20260508172920 70 120 6.1 9.6 0.00 0.00 0.00 45 1015.3
20260508172827 70 147 3.5 7.8 0.00 0.00 0.00 45 1015.3
20260508172715 70 147 2.6 9.6 0.00 0.00 0.00 44 1015.2
20260508172625 70 25 1.7 9.6 0.00 0.00 0.00 43 1015.2
20260508172513 70 319 2.6 9.6 0.00 0.00 0.00 41 1015.3
20260508172422 70 288 2.6 9.6 0.00 0.00 0.00 42 1015.3
20260508172329 70 232 2.6 9.6 0.00 0.00 0.00 44 1015.2
20260508172237 70 263 4.3 9.6 0.00 0.00 0.00 45 1015.2
20260508172124 70 271 5.2 9.6 0.00 0.00 0.00 42 1015.2
20260508172059 70 302 5.2 9.6 0.00 0.00 0.00 42 1015.2
20260508171813 70 205 3.5 9.6 0.00 0.00 0.00 43 1015.4
20260508171719 69 215 2.6 9.6 0.00 0.00 0.00 43 1015.5
20260508171626 70 100 2.6 9.6 0.00 0.00 0.00 44 1015.5
20260508171517 69 188 4.3 9.6 0.00 0.00 0.00 43 1015.7
20260508171445 69 167 4.3 9.6 0.00 0.00 0.00 43 1015.7
20260508171311 69 174 4.3 10.4 0.00 0.00 0.00 43 1015.7
20260508171218 69 147 4.3 8.7 0.00 0.00 0.00 43 1015.6
20260508171127 69 188 4.3 8.7 0.00 0.00 0.00 43 1015.6
20260508171014 69 189 3.5 10.4 0.00 0.00 0.00 43 1015.6
20260508170926 69 197 3.5 12.2 0.00 0.00 0.00 44 1015.6
20260508170813 69 190 4.3 12.2 0.00 0.00 0.00 44 1015.8
20260508170721 69 167 5.2 12.2 0.00 0.00 0.00 45 1015.8
20260508170629 69 193 4.3 12.2 0.00 0.00 0.00 45 1015.6
20260508170559 69 242 4.3 12.2 0.00 0.00 0.00 44 1015.8
20260508170316 70 188 5.2 12.2 0.00 0.00 0.00 44 1015.7
20260508170225 70 177 7.8 12.2 0.00 0.00 0.00 44 1015.7
20260508170112 70 144 7.8 12.2 0.00 0.00 0.00 45 1015.9
20260508170020 70 138 6.1 10.4 0.00 0.00 0.00 45 1016.0
20260508165928 70 123 5.2 10.4 0.00 0.00 0.00 46 1016.0
20260508165818 70 178 6.1 10.4 0.00 0.00 0.00 45 1015.9
20260508165725 69 184 7.0 10.4 0.00 0.00 0.00 46 1015.9
20260508165612 69 158 7.0 10.4 0.00 0.00 0.00 48 1015.9
20260508165519 69 169 7.0 10.4 0.00 0.00 0.00 47 1016.0
20260508165427 69 143 6.1 10.4 0.00 0.00 0.00 47 1016.0
20260508165320 69 215 4.3 10.4 0.00 0.00 0.00 46 1015.9
20260508165247 69 184 4.3 10.4 0.00 0.00 0.00 45 1015.9
20260508165134 69 207 4.3 10.4 0.00 0.00 0.00 46 1015.9
20260508165104 69 202 4.3 10.4 0.00 0.00 0.00 45 1015.9
20260508164817 69 209 6.1 10.4 0.00 0.00 0.00 46 1015.8
20260508164729 69 198 7.0 10.4 0.00 0.00 0.00 45 1015.8
20260508164614 69 182 7.0 10.4 0.00 0.00 0.00 48 1015.7
20260508164522 69 182 4.3 8.7 0.00 0.00 0.00 46 1015.7
20260508164449 69 191 2.6 8.7 0.00 0.00 0.00 45 1015.7
20260508164316 69 66 3.5 8.7 0.00 0.00 0.00 45 1015.9
20260508164244 69 69 4.3 8.7 0.00 0.00 0.00 45 1015.9
20260508164115 69 114 3.5 8.7 0.00 0.00 0.00 44 1015.9
20260508164022 69 140 2.6 8.7 0.00 0.00 0.00 45 1015.9
20260508163929 69 142 1.7 7.8 0.00 0.00 0.00 46 1016.0
20260508163817 69 52 3.5 7.8 0.00 0.00 0.00 47 1015.9
20260508163725 69 5 4.3 7.8 0.00 0.00 0.00 46 1015.9
20260508163614 69 24 5.2 7.8 0.00 0.00 0.00 46 1016.0
20260508163548 68 355 5.2 7.8 0.00 0.00 0.00 48 1016.0
20260508163321 68 71 3.5 10.4 0.00 0.00 0.00 48 1016.0
20260508163227 68 148 2.6 10.4 0.00 0.00 0.00 47 1015.9
20260508163115 68 57 3.5 10.4 0.00 0.00 0.00 46 1015.9
20260508163028 68 115 3.5 10.4 0.00 0.00 0.00 46 1015.9
20260508162916 68 180 3.5 10.4 0.00 0.00 0.00 46 1015.8
20260508162824 68 167 4.3 10.4 0.00 0.00 0.00 47 1015.8
20260508162712 68 133 6.1 10.4 0.00 0.00 0.00 47 1015.9
20260508162619 68 148 6.1 10.4 0.00 0.00 0.00 47 1015.9
20260508162526 68 170 6.1 13.0 0.00 0.00 0.00 47 1015.9
20260508162438 68 154 5.2 13.0 0.00 0.00 0.00 47 1015.9
20260508162324 68 158 4.3 13.0 0.00 0.00 0.00 46 1015.9
20260508162212 68 238 6.1 13.0 0.00 0.00 0.00 46 1015.9
20260508162120 68 192 7.0 13.0 0.00 0.00 0.00 47 1015.9
20260508162054 68 203 7.0 13.0 0.00 0.00 0.00 46 1015.9
20260508161829 69 143 7.8 13.0 0.00 0.00 0.00 47 1016.0
20260508161716 69 148 5.2 13.0 0.00 0.00 0.00 48 1016.1
20260508161623 69 159 2.6 10.4 0.00 0.00 0.00 50 1016.1
20260508161530 68 247 2.6 10.4 0.00 0.00 0.00 47 1016.2
20260508161418 68 205 2.6 10.4 0.00 0.00 0.00 46 1016.1
20260508161329 69 225 2.6 10.4 0.00 0.00 0.00 45 1016.1
20260508161217 69 140 5.2 10.4 0.00 0.00 0.00 46 1016.2
20260508161145 69 141 7.0 10.4 0.00 0.00 0.00 48 1016.2
20260508161012 68 133 6.1 9.6 0.00 0.00 0.00 49 1016.2
20260508160920 68 108 4.3 9.6 0.00 0.00 0.00 47 1016.2
20260508160827 68 228 3.5 9.6 0.00 0.00 0.00 48 1016.2
20260508160718 69 153 4.3 9.6 0.00 0.00 0.00 48 1016.1
20260508160645 69 154 5.2 9.6 0.00 0.00 0.00 46 1016.1
20260508160615 69 211 5.2 10.4 0.00 0.00 0.00 47 1016.1
20260508160329 69 146 4.3 10.4 0.00 0.00 0.00 47 1016.2
20260508160222 69 120 5.2 10.4 0.00 0.00 0.00 47 1016.2
20260508160129 69 130 5.2 10.4 0.00 0.00 0.00 46 1016.3
20260508160017 69 106 6.1 10.4 0.00 0.00 0.00 48 1016.4
20260508155943 69 76 6.1 10.4 0.00 0.00 0.00 49 1016.4
20260508155829 68 109 5.2 10.4 0.00 0.00 0.00 48 1016.3
20260508155717 68 113 5.2 10.4 0.00 0.00 0.00 49 1016.4
20260508155629 68 136 3.5 9.6 0.00 0.00 0.00 49 1016.4
20260508155515 68 153 3.5 9.6 0.00 0.00 0.00 49 1016.5
20260508155442 68 175 5.2 9.6 0.00 0.00 0.00 48 1016.5
20260508155329 68 130 5.2 9.6 0.00 0.00 0.00 48 1016.5
20260508155216 68 114 4.3 9.6 0.00 0.00 0.00 48 1016.5
20260508155142 68 132 3.5 10.4 0.00 0.00 0.00 47 1016.5
20260508155117 68 111 5.2 10.4 0.00 0.00 0.00 47 1016.5
20260508154830 68 76 4.3 10.4 0.00 0.00 0.00 47 1016.4
20260508154716 68 130 5.2 10.4 0.00 0.00 0.00 46 1016.4
20260508154625 68 136 4.3 10.4 0.00 0.00 0.00 47 1016.4
20260508154512 68 129 4.3 10.4 0.00 0.00 0.00 47 1016.4
20260508154423 68 86 5.2 10.4 0.00 0.00 0.00 46 1016.4
20260508154351 68 71 5.2 11.3 0.00 0.00 0.00 46 1016.4
20260508154217 68 66 5.2 11.3 0.00 0.00 0.00 45 1016.5
20260508154124 68 111 4.3 11.3 0.00 0.00 0.00 46 1016.5
20260508154033 68 162 4.3 11.3 0.00 0.00 0.00 47 1016.6
20260508153919 68 126 3.5 11.3 0.00 0.00 0.00 47 1016.5
20260508153846 68 203 3.5 11.3 0.00 0.00 0.00 46 1016.5
20260508153717 68 66 4.3 11.3 0.00 0.00 0.00 47 1016.4
20260508153625 68 85 4.3 11.3 0.00 0.00 0.00 46 1016.4
20260508153556 68 77 4.3 9.6 0.00 0.00 0.00 48 1016.4
20260508153351 67 66 5.2 9.6 0.00 0.00 0.00 48 1016.5
20260508153238 67 109 5.2 9.6 0.00 0.00 0.00 47 1016.5
20260508153128 67 130 4.3 9.6 0.00 0.00 0.00 48 1016.5
20260508153014 67 98 1.7 7.8 0.00 0.00 0.00 49 1016.5
20260508152941 67 117 1.7 8.7 0.00 0.00 0.00 50 1016.5
20260508152847 67 104 2.6 8.7 0.00 0.00 0.00 50 1016.6
20260508152714 67 137 4.3 8.7 0.00 0.00 0.00 49 1016.6
20260508152621 67 114 4.3 8.7 0.00 0.00 0.00 50 1016.6
20260508152513 67 134 4.3 8.7 0.00 0.00 0.00 50 1016.7
20260508152420 66 136 4.3 8.7 0.00 0.00 0.00 48 1016.7
20260508152347 66 109 3.5 8.7 0.00 0.00 0.00 47 1016.7
20260508152213 66 146 3.5 8.7 0.00 0.00 0.00 49 1016.6
20260508152121 66 151 2.6 8.7 0.00 0.00 0.00 49 1016.6
20260508152056 66 180 2.6 8.7 0.00 0.00 0.00 50 1016.7
20260508151830 66 98 2.6 8.7 0.00 0.00 0.00 49 1016.6
20260508151717 66 138 4.3 8.7 0.00 0.00 0.00 49 1016.6
20260508151624 66 161 4.3 8.7 0.00 0.00 0.00 48 1016.6
20260508151511 66 224 3.5 8.7 0.00 0.00 0.00 49 1016.7
20260508151423 66 167 4.3 8.7 0.00 0.00 0.00 51 1016.7
20260508151331 66 134 5.2 8.7 0.00 0.00 0.00 50 1016.7
20260508151239 67 150 7.0 8.7 0.00 0.00 0.00 51 1016.7
20260508151124 67 136 6.1 8.7 0.00 0.00 0.00 50 1016.7
20260508151012 67 163 4.3 8.7 0.00 0.00 0.00 51 1016.8
20260508150920 67 165 2.6 7.0 0.00 0.00 0.00 49 1016.8
20260508150848 67 142 1.7 7.0 0.00 0.00 0.00 50 1016.8
20260508150718 67 120 1.7 7.0 0.00 0.00 0.00 50 1016.9
20260508150645 67 146 2.6 7.0 0.00 0.00 0.00 50 1016.9
20260508150616 67 132 3.5 7.8 0.00 0.00 0.00 48 1016.8
20260508150329 67 150 2.6 8.7 0.00 0.00 0.00 50 1016.9
20260508150221 67 80 2.6 8.7 0.00 0.00 0.00 50 1016.9
20260508150128 67 120 3.5 8.7 0.00 0.00 0.00 51 1017.0
20260508150017 67 124 3.5 8.7 0.00 0.00 0.00 49 1017.1
20260508145926 67 75 3.5 8.7 0.00 0.00 0.00 50 1017.1
20260508145813 67 71 4.3 8.7 0.00 0.00 0.00 52 1017.1
20260508145721 66 94 4.3 8.7 0.00 0.00 0.00 49 1017.1
20260508145611 66 103 5.2 8.7 0.00 0.00 0.00 50 1017.1
20260508145519 66 67 4.3 8.7 0.00 0.00 0.00 49 1017.0
20260508145426 66 52 4.3 8.7 0.00 0.00 0.00 49 1017.0
20260508145313 66 74 3.5 8.7 0.00 0.00 0.00 50 1017.0
20260508145222 66 101 4.3 8.7 0.00 0.00 0.00 49 1017.0
20260508145135 66 53 5.2 8.7 0.00 0.00 0.00 49 1017.0
20260508145103 66 34 5.2 7.8 0.00 0.00 0.00 49 1017.1
20260508144817 66 82 5.2 7.8 0.00 0.00 0.00 51 1017.1
20260508144745 66 96 4.3 7.8 0.00 0.00 0.00 51 1017.1
20260508144611 66 85 3.5 7.8 0.00 0.00 0.00 49 1017.1
20260508144523 66 126 4.3 7.8 0.00 0.00 0.00 49 1017.1
20260508144431 66 207 3.5 7.8 0.00 0.00 0.00 48 1017.1
20260508144318 65 88 2.6 7.8 0.00 0.00 0.00 51 1017.2
20260508144226 65 74 2.6 7.8 0.00 0.00 0.00 52 1017.2
20260508144113 65 105 4.3 7.8 0.00 0.00 0.00 54 1017.2
20260508144024 65 119 4.3 7.8 0.00 0.00 0.00 53 1017.2
20260508143930 65 110 2.6 7.8 0.00 0.00 0.00 53 1017.1
20260508143818 65 117 2.6 7.8 0.00 0.00 0.00 53 1017.1
20260508143727 65 142 2.6 7.8 0.00 0.00 0.00 51 1017.1
20260508143634 65 84 4.3 7.8 0.00 0.00 0.00 56 1017.2
20260508143548 65 132 5.2 8.7 0.00 0.00 0.00 56 1017.2
20260508143321 64 94 6.1 8.7 0.00 0.00 0.00 54 1017.1
20260508143229 64 109 6.1 8.7 0.00 0.00 0.00 55 1017.2
20260508143118 64 111 4.3 8.7 0.00 0.00 0.00 57 1017.2
20260508143046 64 111 3.5 8.7 0.00 0.00 0.00 56 1017.2
20260508142912 64 157 3.5 8.7 0.00 0.00 0.00 55 1017.2
20260508142822 64 145 4.3 8.7 0.00 0.00 0.00 56 1017.2
20260508142730 64 144 5.2 8.7 0.00 0.00 0.00 54 1017.2
20260508142617 64 150 3.5 8.7 0.00 0.00 0.00 59 1017.3
20260508142525 64 132 2.6 7.0 0.00 0.00 0.00 58 1017.3
20260508142412 64 78 2.6 7.8 0.00 0.00 0.00 58 1017.3
20260508142340 64 126 1.7 7.8 0.00 0.00 0.00 58 1017.4
20260508142211 64 42 2.6 7.8 0.00 0.00 0.00 58 1017.3
20260508142138 64 61 2.6 7.8 0.00 0.00 0.00 58 1017.3
20260508142109 64 74 3.5 7.8 0.00 0.00 0.00 56 1017.4
20260508141822 64 123 4.3 7.8 0.00 0.00 0.00 57 1017.4
20260508141713 64 86 5.2 7.8 0.00 0.00 0.00 57 1017.3
20260508141619 64 117 5.2 7.8 0.00 0.00 0.00 57 1017.4
20260508141527 64 121 5.2 7.8 0.00 0.00 0.00 59 1017.4
20260508141414 64 155 4.3 7.8 0.00 0.00 0.00 58 1017.2
20260508141321 64 123 3.5 7.8 0.00 0.00 0.00 59 1017.2
20260508141229 64 113 1.7 4.3 0.00 0.00 0.00 59 1017.2
20260508141122 64 102 1.7 4.3 0.00 0.00 0.00 59 1017.2
20260508141030 64 360 2.6 4.3 0.00 0.00 0.00 59 1017.2
20260508140936 64 66 2.6 4.3 0.00 0.00 0.00 59 1017.2
20260508140822 64 74 2.6 6.1 0.00 0.00 0.00 61 1017.2
20260508140731 64 78 1.7 6.1 0.00 0.00 0.00 60 1017.2
20260508140637 63 83 2.6 6.1 0.00 0.00 0.00 61 1017.1
20260508140551 63 76 2.6 6.1 0.00 0.00 0.00 61 1017.1
20260508140345 63 115 2.6 6.1 0.00 0.00 0.00 62 1017.2
20260508140211 63 98 1.7 6.1 0.00 0.00 0.00 62 1017.2
20260508140119 63 67 1.7 6.1 0.00 0.00 0.00 62 1017.2
20260508140027 63 81 2.6 6.1 0.00 0.00 0.00 62 1017.2
20260508135917 63 76 2.6 6.1 0.00 0.00 0.00 63 1017.2
20260508135824 63 115 1.7 6.1 0.00 0.00 0.00 65 1017.2
20260508135712 62 26 0.9 6.1 0.00 0.00 0.00 65 1017.2
20260508135619 62 73 0.9 6.1 0.00 0.00 0.00 63 1017.2
20260508135527 62 93 1.7 6.1 0.00 0.00 0.00 63 1017.2
20260508135419 62 119 2.6 6.1 0.00 0.00 0.00 63 1017.2
20260508135326 62 105 2.6 6.1 0.00 0.00 0.00 63 1017.2
20260508135213 62 132 2.6 6.1 0.00 0.00 0.00 63 1017.2
20260508135121 62 112 2.6 6.1 0.00 0.00 0.00 63 1017.2
20260508135052 62 109 2.6 6.1 0.00 0.00 0.00 65 1017.2
20260508134830 62 99 2.6 6.1 0.00 0.00 0.00 65 1017.1
20260508134717 62 101 2.6 6.1 0.00 0.00 0.00 63 1017.1
20260508134625 62 149 2.6 4.3 0.00 0.00 0.00 64 1017.1
20260508134513 62 151 1.7 3.5 0.00 0.00 0.00 65 1017.1
20260508134419 62 148 1.7 3.5 0.00 0.00 0.00 64 1017.1
20260508134346 62 115 1.7 3.5 0.00 0.00 0.00 65 1017.1
20260508134216 62 82 1.7 3.5 0.00 0.00 0.00 66 1017.2
20260508134123 62 67 1.7 3.5 0.00 0.00 0.00 66 1017.2
20260508134051 62 77 1.7 3.5 0.00 0.00 0.00 66 1017.2
20260508133918 62 65 1.7 3.5 0.00 0.00 0.00 65 1017.2
20260508133826 62 144 1.7 3.5 0.00 0.00 0.00 66 1017.2
20260508133717 62 149 1.7 5.2 0.00 0.00 0.00 66 1017.1
20260508133623 62 128 1.7 5.2 0.00 0.00 0.00 65 1017.1
20260508133554 61 128 1.7 5.2 0.00 0.00 0.00 65 1017.2
20260508133348 61 167 1.7 5.2 0.00 0.00 0.00 65 1017.3
20260508133214 61 119 1.7 5.2 0.00 0.00 0.00 64 1017.3
20260508133125 61 166 1.7 5.2 0.00 0.00 0.00 66 1017.3
20260508133013 61 111 1.7 5.2 0.00 0.00 0.00 67 1017.4
20260508132921 61 67 1.7 5.2 0.00 0.00 0.00 68 1017.4
20260508132829 61 133 1.7 5.2 0.00 0.00 0.00 69 1017.4
20260508132717 60 107 1.7 3.5 0.00 0.00 0.00 69 1017.4
20260508132625 60 107 1.7 3.5 0.00 0.00 0.00 69 1017.4
20260508132516 60 101 1.7 3.5 0.00 0.00 0.00 69 1017.5
20260508132423 60 117 1.7 3.5 0.00 0.00 0.00 70 1017.5
20260508132311 60 173 0.9 3.5 0.00 0.00 0.00 69 1017.5
20260508132220 60 167 0.9 3.5 0.00 0.00 0.00 68 1017.5
20260508132127 60 190 0.9 4.3 0.00 0.00 0.00 69 1017.4
20260508132102 60 132 1.7 4.3 0.00 0.00 0.00 70 1017.4
20260508131815 59 110 1.7 4.3 0.00 0.00 0.00 69 1017.4
20260508131722 59 153 1.7 4.3 0.00 0.00 0.00 71 1017.4
20260508131630 59 123 1.7 4.3 0.00 0.00 0.00 71 1017.3
20260508131537 59 111 1.7 4.3 0.00 0.00 0.00 70 1017.3
20260508131428 59 112 1.7 4.3 0.00 0.00 0.00 70 1017.3
20260508131316 59 112 1.7 4.3 0.00 0.00 0.00 70 1017.4
20260508131224 59 132 2.6 4.3 0.00 0.00 0.00 70 1017.4
20260508131130 59 156 3.5 4.3 0.00 0.00 0.00 71 1017.4